Time,TemperatureF,DewpointF,PressureIn,WindDirection,WindDirectionDegrees,WindSpeedMPH,WindSpeedGustMPH,Humidity,HourlyPrecipIn,Conditions,Clouds,dailyrainin,SoftwareType,DateUTC
2013-08-17 00:00:00,49.8,47.3,30.20,SE,134,0.0,0.0,91,0.00,,,0.00,WeatherCatV1.20B785,2013-08-17 04:00:00,
2013-08-17 00:01:00,49.7,47.2,30.20,SE,134,0.0,0.0,91,0.00,,,0.00,WeatherCatV1.20B785,2013-08-17 04:01:00,
2013-08-17 00:03:00,49.6,47.1,30.20,SE,134,0.0,0.0,91,0.00,,,0.00,WeatherCatV1.20B785,2013-08-17 04:03:00,
2013-08-17 00:05:00,49.6,47.1,30.20,SE,134,0.0,0.0,91,0.00,,,0.00,WeatherCatV1.20B785,2013-08-17 04:05:00,
2013-08-17 00:07:00,49.5,47.0,30.20,SE,134,0.0,0.0,91,0.00,,,0.00,WeatherCatV1.20B785,2013-08-17 04:07:00,
2013-08-17 00:10:00,49.4,46.9,30.20,SE,134,0.0,0.0,91,0.00,,,0.00,WeatherCatV1.20B785,2013-08-17 04:10:00,
2013-08-17 00:12:00,49.6,47.4,30.21,SE,134,0.0,0.0,92,0.00,,,0.00,WeatherCatV1.20B785,2013-08-17 04:12:00,
2013-08-17 00:15:00,49.7,47.5,30.21,SE,134,0.0,0.0,92,0.00,,,0.00,WeatherCatV1.20B785,2013-08-17 04:15:00,
2013-08-17 00:17:00,49.7,47.5,30.21,SE,133,0.0,0.0,92,0.00,,,0.00,WeatherCatV1.20B785,2013-08-17 04:17:00,
2013-08-17 00:20:00,49.6,47.4,30.21,SE,134,0.0,0.0,92,0.00,,,0.00,WeatherCatV1.20B785,2013-08-17 04:20:00,
2013-08-17 00:22:00,49.6,47.4,30.21,SE,134,0.0,0.0,92,0.00,,,0.00,WeatherCatV1.20B785,2013-08-17 04:22:00,
2013-08-17 00:25:00,49.5,47.3,30.21,SE,134,0.0,0.0,92,0.00,,,0.00,WeatherCatV1.20B785,2013-08-17 04:25:00,
2013-08-17 00:27:00,49.5,47.3,30.21,SE,134,0.0,0.0,92,0.00,,,0.00,WeatherCatV1.20B785,2013-08-17 04:27:00,
2013-08-17 00:30:00,49.2,47.0,30.21,SE,133,0.0,0.0,92,0.00,,,0.00,WeatherCatV1.20B785,2013-08-17 04:30:00,
2013-08-17 00:32:00,49.2,47.0,30.21,SE,134,0.0,0.0,92,0.00,,,0.00,WeatherCatV1.20B785,2013-08-17 04:32:00,
2013-08-17 00:35:00,48.8,46.3,30.21,SE,133,0.0,0.0,91,0.00,,,0.00,WeatherCatV1.20B785,2013-08-17 04:35:00,
2013-08-17 00:37:00,48.8,46.3,30.21,SE,133,0.0,0.0,91,0.00,,,0.00,WeatherCatV1.20B785,2013-08-17 04:37:00,
2013-08-17 00:40:00,48.7,46.5,30.21,SE,133,0.0,0.0,92,0.00,,,0.00,WeatherCatV1.20B785,2013-08-17 04:40:00,
2013-08-17 00:42:00,48.7,46.5,30.21,SE,132,0.0,0.0,92,0.00,,,0.00,WeatherCatV1.20B785,2013-08-17 04:42:00,
2013-08-17 00:45:00,48.6,46.4,30.22,SE,133,0.0,0.0,92,0.00,,,0.00,WeatherCatV1.20B785,2013-08-17 04:45:00,
2013-08-17 00:47:00,48.6,46.4,30.22,SE,133,0.0,0.0,92,0.00,,,0.00,WeatherCatV1.20B785,2013-08-17 04:47:00,
2013-08-17 00:50:00,48.4,46.2,30.22,SE,134,0.0,0.0,92,0.00,,,0.00,WeatherCatV1.20B785,2013-08-17 04:50:00,
2013-08-17 00:52:00,48.4,46.2,30.22,SE,133,0.0,0.0,92,0.00,,,0.00,WeatherCatV1.20B785,2013-08-17 04:52:00,
2013-08-17 00:55:00,48.2,46.0,30.22,SE,134,0.0,0.0,92,0.00,,,0.00,WeatherCatV1.20B785,2013-08-17 04:55:00,
2013-08-17 00:57:00,48.2,46.0,30.21,SE,133,0.0,0.0,92,0.00,,,0.00,WeatherCatV1.20B785,2013-08-17 04:57:00,
2013-08-17 01:00:00,48.2,46.0,30.21,SE,133,0.0,0.0,92,0.00,,,0.00,WeatherCatV1.20B785,2013-08-17 05:00:00,
2013-08-17 01:02:00,48.1,45.9,30.21,SE,134,0.0,0.0,92,0.00,,,0.00,WeatherCatV1.20B785,2013-08-17 05:02:00,
2013-08-17 01:05:00,48.1,45.9,30.21,SE,133,0.0,0.0,92,0.00,,,0.00,WeatherCatV1.20B785,2013-08-17 05:05:00,
2013-08-17 01:07:00,48.1,45.9,30.21,SE,133,0.0,0.0,92,0.00,,,0.00,WeatherCatV1.20B785,2013-08-17 05:07:00,
2013-08-17 01:10:00,48.0,45.8,30.21,SE,133,0.0,0.0,92,0.00,,,0.00,WeatherCatV1.20B785,2013-08-17 05:10:00,
2013-08-17 01:12:00,48.1,45.9,30.21,SE,134,0.0,0.0,92,0.00,,,0.00,WeatherCatV1.20B785,2013-08-17 05:12:00,
2013-08-17 01:15:00,48.1,45.9,30.21,SE,133,0.0,0.0,92,0.00,,,0.00,WeatherCatV1.20B785,2013-08-17 05:15:00,
2013-08-17 01:17:00,48.1,45.9,30.21,SE,134,0.0,0.0,92,0.00,,,0.00,WeatherCatV1.20B785,2013-08-17 05:17:00,
2013-08-17 01:20:00,48.0,45.8,30.21,SE,133,0.0,0.0,92,0.00,,,0.00,WeatherCatV1.20B785,2013-08-17 05:20:00,
2013-08-17 01:22:00,48.0,45.8,30.21,SE,134,0.0,0.0,92,0.00,,,0.00,WeatherCatV1.20B785,2013-08-17 05:22:00,
2013-08-17 01:25:00,47.9,45.7,30.22,SE,133,0.0,0.0,92,0.00,,,0.00,WeatherCatV1.20B785,2013-08-17 05:25:00,
2013-08-17 01:27:00,47.9,45.7,30.22,SE,133,0.0,0.0,92,0.00,,,0.00,WeatherCatV1.20B785,2013-08-17 05:27:00,
2013-08-17 01:30:00,47.8,45.6,30.22,SE,133,0.0,0.0,92,0.00,,,0.00,WeatherCatV1.20B785,2013-08-17 05:30:00,
2013-08-17 01:32:00,47.9,45.7,30.22,SE,134,0.0,0.0,92,0.00,,,0.00,WeatherCatV1.20B785,2013-08-17 05:32:00,
2013-08-17 01:35:00,47.9,45.7,30.22,SE,133,0.0,0.0,92,0.00,,,0.00,WeatherCatV1.20B785,2013-08-17 05:35:00,
2013-08-17 01:37:00,47.9,45.7,30.22,SE,133,0.0,0.0,92,0.00,,,0.00,WeatherCatV1.20B785,2013-08-17 05:37:00,
2013-08-17 01:40:00,47.8,45.6,30.22,SE,133,0.0,0.0,92,0.00,,,0.00,WeatherCatV1.20B785,2013-08-17 05:40:00,
2013-08-17 01:42:00,47.7,45.5,30.22,SE,133,0.0,0.0,92,0.00,,,0.00,WeatherCatV1.20B785,2013-08-17 05:42:00,
2013-08-17 01:45:00,47.5,45.3,30.22,SE,133,0.0,0.0,92,0.00,,,0.00,WeatherCatV1.20B785,2013-08-17 05:45:00,
2013-08-17 01:47:00,47.5,45.3,30.22,SE,134,0.0,0.0,92,0.00,,,0.00,WeatherCatV1.20B785,2013-08-17 05:47:00,
2013-08-17 01:50:00,47.5,45.3,30.22,SE,133,0.0,0.0,92,0.00,,,0.00,WeatherCatV1.20B785,2013-08-17 05:50:00,
2013-08-17 01:52:00,47.4,45.2,30.22,SE,133,0.0,0.0,92,0.00,,,0.00,WeatherCatV1.20B785,2013-08-17 05:52:00,
2013-08-17 01:55:00,47.3,45.1,30.22,SE,133,0.0,0.0,92,0.00,,,0.00,WeatherCatV1.20B785,2013-08-17 05:55:00,
2013-08-17 01:57:00,47.4,45.2,30.22,SE,134,0.0,0.0,92,0.00,,,0.00,WeatherCatV1.20B785,2013-08-17 05:57:00,
2013-08-17 02:00:00,47.5,45.3,30.22,SE,133,0.0,0.0,92,0.00,,,0.00,WeatherCatV1.20B785,2013-08-17 06:00:00,
2013-08-17 02:02:00,47.6,45.4,30.22,SE,134,0.0,0.0,92,0.00,,,0.00,WeatherCatV1.20B785,2013-08-17 06:02:00,
2013-08-17 02:05:00,47.6,45.4,30.22,SE,133,0.0,0.0,92,0.00,,,0.00,WeatherCatV1.20B785,2013-08-17 06:05:00,
2013-08-17 02:07:00,47.5,45.3,30.22,SE,133,0.0,0.0,92,0.00,,,0.00,WeatherCatV1.20B785,2013-08-17 06:07:00,
2013-08-17 02:10:00,47.4,45.2,30.22,SE,133,0.0,0.0,92,0.00,,,0.00,WeatherCatV1.20B785,2013-08-17 06:10:00,
2013-08-17 02:12:00,47.3,45.1,30.22,SE,133,0.0,0.0,92,0.00,,,0.00,WeatherCatV1.20B785,2013-08-17 06:12:00,
2013-08-17 02:15:00,47.1,44.9,30.22,SE,133,0.0,0.0,92,0.00,,,0.00,WeatherCatV1.20B785,2013-08-17 06:15:00,
2013-08-17 02:17:00,47.1,44.9,30.22,SE,133,0.0,0.0,92,0.00,,,0.00,WeatherCatV1.20B785,2013-08-17 06:17:00,
2013-08-17 02:20:00,46.9,44.7,30.22,SE,133,0.0,0.0,92,0.00,,,0.00,WeatherCatV1.20B785,2013-08-17 06:20:00,
2013-08-17 02:22:00,46.9,44.7,30.22,SE,133,0.0,0.0,92,0.00,,,0.00,WeatherCatV1.20B785,2013-08-17 06:22:00,
2013-08-17 02:25:00,46.8,44.6,30.22,SE,133,0.0,0.0,92,0.00,,,0.00,WeatherCatV1.20B785,2013-08-17 06:25:00,
2013-08-17 02:27:00,46.8,44.6,30.22,SE,134,0.0,0.0,92,0.00,,,0.00,WeatherCatV1.20B785,2013-08-17 06:27:00,
2013-08-17 02:30:00,47.1,44.9,30.22,SE,133,0.0,0.0,92,0.00,,,0.00,WeatherCatV1.20B785,2013-08-17 06:30:00,
2013-08-17 02:32:00,47.1,44.9,30.22,SE,134,0.0,0.0,92,0.00,,,0.00,WeatherCatV1.20B785,2013-08-17 06:32:00,
2013-08-17 02:35:00,47.1,44.9,30.22,SE,133,0.0,0.0,92,0.00,,,0.00,WeatherCatV1.20B785,2013-08-17 06:35:00,
2013-08-17 02:37:00,47.1,44.9,30.22,SE,134,0.0,0.0,92,0.00,,,0.00,WeatherCatV1.20B785,2013-08-17 06:37:00,
2013-08-17 02:40:00,46.9,44.7,30.22,SE,133,0.0,0.0,92,0.00,,,0.00,WeatherCatV1.20B785,2013-08-17 06:40:00,
2013-08-17 02:42:00,46.8,44.6,30.22,SE,132,0.0,0.0,92,0.00,,,0.00,WeatherCatV1.20B785,2013-08-17 06:42:00,
2013-08-17 02:45:00,46.7,44.5,30.22,SE,133,0.0,0.0,92,0.00,,,0.00,WeatherCatV1.20B785,2013-08-17 06:45:00,
2013-08-17 02:47:00,46.7,44.5,30.22,SE,133,0.0,0.0,92,0.00,,,0.00,WeatherCatV1.20B785,2013-08-17 06:47:00,
2013-08-17 02:50:00,46.7,44.5,30.22,SE,133,0.0,0.0,92,0.00,,,0.00,WeatherCatV1.20B785,2013-08-17 06:50:00,
2013-08-17 02:52:00,46.6,44.4,30.22,SE,133,0.0,0.0,92,0.00,,,0.00,WeatherCatV1.20B785,2013-08-17 06:52:00,
2013-08-17 02:55:00,46.4,44.2,30.22,SE,133,0.0,0.0,92,0.00,,,0.00,WeatherCatV1.20B785,2013-08-17 06:55:00,
2013-08-17 02:57:00,46.5,44.3,30.22,SE,134,0.0,0.0,92,0.00,,,0.00,WeatherCatV1.20B785,2013-08-17 06:57:00,
2013-08-17 03:00:00,46.5,44.3,30.22,SE,133,0.0,0.0,92,0.00,,,0.00,WeatherCatV1.20B785,2013-08-17 07:00:00,
2013-08-17 03:02:00,46.4,44.2,30.22,SE,132,0.0,0.0,92,0.00,,,0.00,WeatherCatV1.20B785,2013-08-17 07:02:00,
2013-08-17 03:05:00,46.4,44.2,30.22,SE,133,0.0,0.0,92,0.00,,,0.00,WeatherCatV1.20B785,2013-08-17 07:05:00,
2013-08-17 03:07:00,46.4,44.2,30.22,SE,133,0.0,0.0,92,0.00,,,0.00,WeatherCatV1.20B785,2013-08-17 07:07:00,
2013-08-17 03:10:00,46.4,44.2,30.22,SE,133,0.0,0.0,92,0.00,,,0.00,WeatherCatV1.20B785,2013-08-17 07:10:00,
2013-08-17 03:12:00,46.4,44.2,30.23,SE,133,0.0,0.0,92,0.00,,,0.00,WeatherCatV1.20B785,2013-08-17 07:12:00,
2013-08-17 03:15:00,46.4,44.2,30.22,SE,133,0.0,0.0,92,0.00,,,0.00,WeatherCatV1.20B785,2013-08-17 07:15:00,
2013-08-17 03:17:00,46.4,44.2,30.22,SE,134,0.0,0.0,92,0.00,,,0.00,WeatherCatV1.20B785,2013-08-17 07:17:00,
2013-08-17 03:20:00,46.4,44.2,30.23,SE,133,0.0,0.0,92,0.00,,,0.00,WeatherCatV1.20B785,2013-08-17 07:20:00,
2013-08-17 03:22:00,46.3,44.1,30.23,SE,133,0.0,0.0,92,0.00,,,0.00,WeatherCatV1.20B785,2013-08-17 07:22:00,
2013-08-17 03:25:00,46.1,43.9,30.23,SE,133,0.0,0.0,92,0.00,,,0.00,WeatherCatV1.20B785,2013-08-17 07:25:00,
2013-08-17 03:27:00,46.0,43.8,30.23,SE,133,0.0,0.0,92,0.00,,,0.00,WeatherCatV1.20B785,2013-08-17 07:27:00,
2013-08-17 03:30:00,45.9,43.7,30.23,SE,133,0.0,0.0,92,0.00,,,0.00,WeatherCatV1.20B785,2013-08-17 07:30:00,
2013-08-17 03:32:00,45.8,43.6,30.23,SE,133,0.0,0.0,92,0.00,,,0.00,WeatherCatV1.20B785,2013-08-17 07:32:00,
2013-08-17 03:35:00,45.7,43.5,30.23,SE,133,0.0,0.0,92,0.00,,,0.00,WeatherCatV1.20B785,2013-08-17 07:35:00,
2013-08-17 03:37:00,45.7,43.5,30.23,SE,133,0.0,0.0,92,0.00,,,0.00,WeatherCatV1.20B785,2013-08-17 07:37:00,
2013-08-17 03:40:00,45.6,43.4,30.23,SE,133,0.0,0.0,92,0.00,,,0.00,WeatherCatV1.20B785,2013-08-17 07:40:00,
2013-08-17 03:42:00,45.6,43.4,30.23,SE,133,0.0,0.0,92,0.00,,,0.00,WeatherCatV1.20B785,2013-08-17 07:42:00,
2013-08-17 03:45:00,45.7,43.5,30.23,SE,133,0.0,0.0,92,0.00,,,0.00,WeatherCatV1.20B785,2013-08-17 07:45:00,
2013-08-17 03:47:00,45.7,43.5,30.22,SE,133,0.0,0.0,92,0.00,,,0.00,WeatherCatV1.20B785,2013-08-17 07:47:00,
2013-08-17 03:50:00,45.7,43.8,30.23,SE,133,0.0,0.0,93,0.00,,,0.00,WeatherCatV1.20B785,2013-08-17 07:50:00,
2013-08-17 03:52:00,45.6,43.7,30.23,SE,133,0.0,0.0,93,0.00,,,0.00,WeatherCatV1.20B785,2013-08-17 07:52:00,
2013-08-17 03:55:00,45.7,43.8,30.23,SE,133,0.0,0.0,93,0.00,,,0.00,WeatherCatV1.20B785,2013-08-17 07:55:00,
2013-08-17 03:57:00,45.7,43.8,30.23,SE,133,0.0,0.0,93,0.00,,,0.00,WeatherCatV1.20B785,2013-08-17 07:57:00,
2013-08-17 04:00:00,46.0,44.1,30.23,SE,133,0.0,0.0,93,0.00,,,0.00,WeatherCatV1.20B785,2013-08-17 08:00:00,
2013-08-17 04:02:00,46.0,44.1,30.23,SE,133,0.0,0.0,93,0.00,,,0.00,WeatherCatV1.20B785,2013-08-17 08:02:00,
2013-08-17 04:05:00,46.0,44.1,30.23,SE,133,0.0,0.0,93,0.00,,,0.00,WeatherCatV1.20B785,2013-08-17 08:05:00,
2013-08-17 04:07:00,46.0,44.1,30.23,SE,133,0.0,0.0,93,0.00,,,0.00,WeatherCatV1.20B785,2013-08-17 08:07:00,
2013-08-17 04:10:00,45.8,43.9,30.23,SE,133,0.0,0.0,93,0.00,,,0.00,WeatherCatV1.20B785,2013-08-17 08:10:00,
2013-08-17 04:12:00,45.8,43.9,30.23,SE,133,0.0,0.0,93,0.00,,,0.00,WeatherCatV1.20B785,2013-08-17 08:12:00,
2013-08-17 04:15:00,45.6,43.7,30.23,SE,133,0.0,0.0,93,0.00,,,0.00,WeatherCatV1.20B785,2013-08-17 08:15:00,
2013-08-17 04:17:00,45.6,43.7,30.23,SE,134,0.0,0.0,93,0.00,,,0.00,WeatherCatV1.20B785,2013-08-17 08:17:00,
2013-08-17 04:20:00,45.4,43.5,30.23,SE,133,0.0,0.0,93,0.00,,,0.00,WeatherCatV1.20B785,2013-08-17 08:20:00,
2013-08-17 04:22:00,45.4,43.5,30.23,SE,133,0.0,0.0,93,0.00,,,0.00,WeatherCatV1.20B785,2013-08-17 08:22:00,
2013-08-17 04:25:00,45.4,43.5,30.23,SE,133,0.0,0.0,93,0.00,,,0.00,WeatherCatV1.20B785,2013-08-17 08:25:00,
2013-08-17 04:27:00,45.4,43.5,30.23,SE,134,0.0,0.0,93,0.00,,,0.00,WeatherCatV1.20B785,2013-08-17 08:27:00,
2013-08-17 04:30:00,45.5,43.6,30.23,SE,133,0.0,0.0,93,0.00,,,0.00,WeatherCatV1.20B785,2013-08-17 08:30:00,
2013-08-17 04:32:00,45.5,43.6,30.23,SE,133,0.0,0.0,93,0.00,,,0.00,WeatherCatV1.20B785,2013-08-17 08:32:00,
2013-08-17 04:35:00,45.4,43.5,30.23,SE,133,0.0,0.0,93,0.00,,,0.00,WeatherCatV1.20B785,2013-08-17 08:35:00,
2013-08-17 04:37:00,45.4,43.5,30.23,SE,133,0.0,0.0,93,0.00,,,0.00,WeatherCatV1.20B785,2013-08-17 08:37:00,
2013-08-17 04:40:00,45.3,43.4,30.23,SE,133,0.0,0.0,93,0.00,,,0.00,WeatherCatV1.20B785,2013-08-17 08:40:00,
2013-08-17 04:42:00,45.3,43.4,30.23,SE,133,0.0,0.0,93,0.00,,,0.00,WeatherCatV1.20B785,2013-08-17 08:42:00,
2013-08-17 04:45:00,45.3,43.4,30.23,SE,133,0.0,0.0,93,0.00,,,0.00,WeatherCatV1.20B785,2013-08-17 08:45:00,
2013-08-17 04:47:00,45.3,43.4,30.23,SE,132,0.0,0.0,93,0.00,,,0.00,WeatherCatV1.20B785,2013-08-17 08:47:00,
2013-08-17 04:50:00,45.3,43.4,30.23,SE,133,0.0,0.0,93,0.00,,,0.00,WeatherCatV1.20B785,2013-08-17 08:50:00,
2013-08-17 04:52:00,45.3,43.4,30.23,SE,134,0.0,0.0,93,0.00,,,0.00,WeatherCatV1.20B785,2013-08-17 08:52:00,
2013-08-17 04:55:00,45.4,43.5,30.23,SE,133,0.0,0.0,93,0.00,,,0.00,WeatherCatV1.20B785,2013-08-17 08:55:00,
2013-08-17 04:57:00,45.4,43.5,30.24,SE,133,0.0,0.0,93,0.00,,,0.00,WeatherCatV1.20B785,2013-08-17 08:57:00,
2013-08-17 05:00:00,45.3,43.4,30.24,SE,133,0.0,0.0,93,0.00,,,0.00,WeatherCatV1.20B785,2013-08-17 09:00:00,
2013-08-17 05:02:00,45.2,43.3,30.24,SE,133,0.0,0.0,93,0.00,,,0.00,WeatherCatV1.20B785,2013-08-17 09:02:00,
2013-08-17 05:05:00,45.1,43.2,30.24,SE,133,0.0,0.0,93,0.00,,,0.00,WeatherCatV1.20B785,2013-08-17 09:05:00,
2013-08-17 05:07:00,45.2,43.3,30.24,SE,133,0.0,0.0,93,0.00,,,0.00,WeatherCatV1.20B785,2013-08-17 09:07:00,
2013-08-17 05:10:00,45.3,43.4,30.24,SE,133,0.0,0.0,93,0.00,,,0.00,WeatherCatV1.20B785,2013-08-17 09:10:00,
2013-08-17 05:12:00,45.3,43.4,30.24,SE,133,0.0,0.0,93,0.00,,,0.00,WeatherCatV1.20B785,2013-08-17 09:12:00,
2013-08-17 05:15:00,45.1,43.2,30.24,SE,133,0.0,0.0,93,0.00,,,0.00,WeatherCatV1.20B785,2013-08-17 09:15:00,
2013-08-17 05:17:00,45.0,43.1,30.24,SE,132,0.0,0.0,93,0.00,,,0.00,WeatherCatV1.20B785,2013-08-17 09:17:00,
2013-08-17 05:20:00,44.9,43.0,30.24,SE,133,0.0,0.0,93,0.00,,,0.00,WeatherCatV1.20B785,2013-08-17 09:20:00,
2013-08-17 05:22:00,44.9,43.0,30.24,SE,133,0.0,0.0,93,0.00,,,0.00,WeatherCatV1.20B785,2013-08-17 09:22:00,
2013-08-17 05:25:00,44.8,42.9,30.24,SE,133,0.0,0.0,93,0.00,,,0.00,WeatherCatV1.20B785,2013-08-17 09:25:00,
2013-08-17 05:27:00,44.8,42.9,30.24,SE,133,0.0,0.0,93,0.00,,,0.00,WeatherCatV1.20B785,2013-08-17 09:27:00,
2013-08-17 05:30:00,44.9,43.0,30.24,SE,133,0.0,0.0,93,0.00,,,0.00,WeatherCatV1.20B785,2013-08-17 09:30:00,
2013-08-17 05:32:00,45.0,43.1,30.24,SE,132,0.0,0.0,93,0.00,,,0.00,WeatherCatV1.20B785,2013-08-17 09:32:00,
2013-08-17 05:35:00,44.9,43.0,30.24,SE,133,0.0,0.0,93,0.00,,,0.00,WeatherCatV1.20B785,2013-08-17 09:35:00,
2013-08-17 05:37:00,44.9,43.0,30.24,SE,133,0.0,0.0,93,0.00,,,0.00,WeatherCatV1.20B785,2013-08-17 09:37:00,
2013-08-17 05:40:00,45.1,43.2,30.24,SE,133,0.0,0.0,93,0.00,,,0.00,WeatherCatV1.20B785,2013-08-17 09:40:00,
2013-08-17 05:42:00,45.1,43.2,30.24,SE,134,0.0,0.0,93,0.00,,,0.00,WeatherCatV1.20B785,2013-08-17 09:42:00,
2013-08-17 05:45:00,45.3,43.4,30.24,SE,133,0.0,0.0,93,0.00,,,0.00,WeatherCatV1.20B785,2013-08-17 09:45:00,
2013-08-17 05:47:00,45.3,43.4,30.24,SE,134,0.0,0.0,93,0.00,,,0.00,WeatherCatV1.20B785,2013-08-17 09:47:00,
2013-08-17 05:50:00,45.1,43.2,30.24,SE,133,0.0,0.0,93,0.00,,,0.00,WeatherCatV1.20B785,2013-08-17 09:50:00,
2013-08-17 05:52:00,45.1,43.2,30.24,SE,134,0.0,0.0,93,0.00,,,0.00,WeatherCatV1.20B785,2013-08-17 09:52:00,
2013-08-17 05:55:00,45.0,43.1,30.24,SE,133,0.0,0.0,93,0.00,,,0.00,WeatherCatV1.20B785,2013-08-17 09:55:00,
2013-08-17 05:57:00,44.9,43.0,30.24,SE,133,0.0,0.0,93,0.00,,,0.00,WeatherCatV1.20B785,2013-08-17 09:57:00,
2013-08-17 06:00:00,44.8,42.9,30.24,SE,133,0.0,0.0,93,0.00,,,0.00,WeatherCatV1.20B785,2013-08-17 10:00:00,
2013-08-17 06:02:00,44.9,43.0,30.24,SE,133,0.0,0.0,93,0.00,,,0.00,WeatherCatV1.20B785,2013-08-17 10:02:00,
2013-08-17 06:05:00,44.9,43.0,30.24,SE,133,0.0,0.0,93,0.00,,,0.00,WeatherCatV1.20B785,2013-08-17 10:05:00,
2013-08-17 06:07:00,44.7,42.8,30.24,SE,133,0.0,0.0,93,0.00,,,0.00,WeatherCatV1.20B785,2013-08-17 10:07:00,
2013-08-17 06:10:00,44.5,42.6,30.24,SE,133,0.0,0.0,93,0.00,,,0.00,WeatherCatV1.20B785,2013-08-17 10:10:00,
2013-08-17 06:12:00,44.4,42.5,30.24,SE,133,0.0,0.0,93,0.00,,,0.00,WeatherCatV1.20B785,2013-08-17 10:12:00,
2013-08-17 06:15:00,44.3,42.4,30.24,SE,133,0.0,0.0,93,0.00,,,0.00,WeatherCatV1.20B785,2013-08-17 10:15:00,
2013-08-17 06:17:00,44.1,42.2,30.24,SE,133,0.0,0.0,93,0.00,,,0.00,WeatherCatV1.20B785,2013-08-17 10:17:00,
2013-08-17 06:20:00,44.0,42.1,30.24,SE,133,0.0,0.0,93,0.00,,,0.00,WeatherCatV1.20B785,2013-08-17 10:20:00,
2013-08-17 06:22:00,43.9,42.0,30.24,SE,133,0.0,0.0,93,0.00,,,0.00,WeatherCatV1.20B785,2013-08-17 10:22:00,
2013-08-17 06:25:00,43.9,42.0,30.24,SE,133,0.0,0.0,93,0.00,,,0.00,WeatherCatV1.20B785,2013-08-17 10:25:00,
2013-08-17 06:27:00,43.9,42.0,30.24,SE,133,0.0,0.0,93,0.00,,,0.00,WeatherCatV1.20B785,2013-08-17 10:27:00,
2013-08-17 06:30:00,44.0,42.1,30.25,SE,133,0.0,0.0,93,0.00,,,0.00,WeatherCatV1.20B785,2013-08-17 10:30:00,
2013-08-17 06:32:00,44.0,42.1,30.25,SE,134,0.0,0.0,93,0.00,,,0.00,WeatherCatV1.20B785,2013-08-17 10:32:00,
2013-08-17 06:35:00,44.0,42.1,30.25,SE,133,0.0,0.0,93,0.00,,,0.00,WeatherCatV1.20B785,2013-08-17 10:35:00,
2013-08-17 06:37:00,44.0,42.1,30.25,SE,133,0.0,0.0,93,0.00,,,0.00,WeatherCatV1.20B785,2013-08-17 10:37:00,
2013-08-17 06:40:00,44.0,42.1,30.25,SE,133,0.0,0.0,93,0.00,,,0.00,WeatherCatV1.20B785,2013-08-17 10:40:00,
2013-08-17 06:42:00,44.1,42.2,30.25,SE,134,0.0,0.0,93,0.00,,,0.00,WeatherCatV1.20B785,2013-08-17 10:42:00,
2013-08-17 06:45:00,44.1,42.2,30.25,SE,133,0.0,0.0,93,0.00,,,0.00,WeatherCatV1.20B785,2013-08-17 10:45:00,
2013-08-17 06:47:00,44.1,42.2,30.25,SE,133,0.0,0.0,93,0.00,,,0.00,WeatherCatV1.20B785,2013-08-17 10:47:00,
2013-08-17 06:50:00,44.3,42.4,30.26,SE,133,0.0,0.0,93,0.00,,,0.00,WeatherCatV1.20B785,2013-08-17 10:50:00,
2013-08-17 06:52:00,44.5,42.6,30.26,SE,134,0.0,0.0,93,0.00,,,0.00,WeatherCatV1.20B785,2013-08-17 10:52:00,
2013-08-17 06:55:00,44.8,42.9,30.26,SE,133,0.0,0.0,93,0.00,,,0.00,WeatherCatV1.20B785,2013-08-17 10:55:00,
2013-08-17 06:57:00,45.0,43.1,30.26,SE,133,0.0,0.0,93,0.00,,,0.00,WeatherCatV1.20B785,2013-08-17 10:57:00,
2013-08-17 07:00:00,45.2,43.3,30.26,SE,133,0.0,0.0,93,0.00,,,0.00,WeatherCatV1.20B785,2013-08-17 11:00:00,
2013-08-17 07:02:00,45.4,43.5,30.26,SE,133,0.0,0.0,93,0.00,,,0.00,WeatherCatV1.20B785,2013-08-17 11:02:00,
2013-08-17 07:05:00,45.7,43.8,30.26,SE,133,0.0,0.0,93,0.00,,,0.00,WeatherCatV1.20B785,2013-08-17 11:05:00,
2013-08-17 07:07:00,45.8,43.9,30.26,SE,132,0.0,0.0,93,0.00,,,0.00,WeatherCatV1.20B785,2013-08-17 11:07:00,
2013-08-17 07:10:00,46.2,44.3,30.26,SE,133,0.0,0.0,93,0.00,,,0.00,WeatherCatV1.20B785,2013-08-17 11:10:00,
2013-08-17 07:12:00,46.3,44.4,30.26,SE,134,0.0,0.0,93,0.00,,,0.00,WeatherCatV1.20B785,2013-08-17 11:12:00,
2013-08-17 07:15:00,46.8,44.9,30.26,SE,133,0.0,0.0,93,0.00,,,0.00,WeatherCatV1.20B785,2013-08-17 11:15:00,
2013-08-17 07:17:00,46.9,45.0,30.26,SE,134,0.0,0.0,93,0.00,,,0.00,WeatherCatV1.20B785,2013-08-17 11:17:00,
2013-08-17 07:20:00,47.3,45.4,30.26,SE,133,0.0,0.0,93,0.00,,,0.00,WeatherCatV1.20B785,2013-08-17 11:20:00,
2013-08-17 07:22:00,47.4,45.5,30.26,SE,134,0.0,0.0,93,0.00,,,0.00,WeatherCatV1.20B785,2013-08-17 11:22:00,
2013-08-17 07:25:00,47.8,45.9,30.26,SE,137,0.0,0.0,93,0.00,,,0.00,WeatherCatV1.20B785,2013-08-17 11:25:00,
2013-08-17 07:27:00,47.9,46.0,30.26,SE,138,0.0,0.0,93,0.00,,,0.00,WeatherCatV1.20B785,2013-08-17 11:27:00,
2013-08-17 07:30:00,48.2,46.3,30.26,SE,138,0.0,0.0,93,0.00,,,0.00,WeatherCatV1.20B785,2013-08-17 11:30:00,
2013-08-17 07:32:00,48.2,46.3,30.26,SE,138,0.0,0.0,93,0.00,,,0.00,WeatherCatV1.20B785,2013-08-17 11:32:00,
2013-08-17 07:35:00,48.4,46.5,30.26,SE,138,0.0,1.0,93,0.00,,,0.00,WeatherCatV1.20B785,2013-08-17 11:35:00,
2013-08-17 07:37:00,48.6,46.7,30.26,SE,139,0.0,0.0,93,0.00,,,0.00,WeatherCatV1.20B785,2013-08-17 11:37:00,
2013-08-17 07:40:00,49.0,47.1,30.26,SE,138,0.0,0.0,93,0.00,,,0.00,WeatherCatV1.20B785,2013-08-17 11:40:00,
2013-08-17 07:42:00,49.1,47.2,30.26,SE,138,0.0,0.0,93,0.00,,,0.00,WeatherCatV1.20B785,2013-08-17 11:42:00,
2013-08-17 07:45:00,49.4,47.5,30.26,SE,138,0.0,0.0,93,0.00,,,0.00,WeatherCatV1.20B785,2013-08-17 11:45:00,
2013-08-17 07:47:00,49.6,47.7,30.26,SE,136,0.0,0.0,93,0.00,,,0.00,WeatherCatV1.20B785,2013-08-17 11:47:00,
2013-08-17 07:50:00,50.0,48.1,30.26,SE,137,0.0,0.0,93,0.00,,,0.00,WeatherCatV1.20B785,2013-08-17 11:50:00,
2013-08-17 07:52:00,50.2,48.2,30.26,SE,137,0.0,0.0,93,0.00,,,0.00,WeatherCatV1.20B785,2013-08-17 11:52:00,
2013-08-17 07:55:00,50.4,48.5,30.26,SE,136,0.0,0.0,93,0.00,,,0.00,WeatherCatV1.20B785,2013-08-17 11:55:00,
2013-08-17 07:57:00,50.7,48.8,30.26,SE,137,0.0,0.0,93,0.00,,,0.00,WeatherCatV1.20B785,2013-08-17 11:57:00,
2013-08-17 08:00:00,51.2,49.2,30.26,SE,136,0.0,0.0,93,0.00,,,0.00,WeatherCatV1.20B785,2013-08-17 12:00:00,
2013-08-17 08:02:00,51.5,49.5,30.26,SE,137,0.0,0.0,93,0.00,,,0.00,WeatherCatV1.20B785,2013-08-17 12:02:00,
2013-08-17 08:05:00,51.6,49.6,30.26,SE,135,0.0,0.0,93,0.00,,,0.00,WeatherCatV1.20B785,2013-08-17 12:05:00,
2013-08-17 08:07:00,51.6,49.6,30.26,ESE,122,0.0,0.0,93,0.00,,,0.00,WeatherCatV1.20B785,2013-08-17 12:07:00,
2013-08-17 08:09:00,51.9,49.9,30.26,ESE,122,0.0,1.0,93,0.00,,,0.00,WeatherCatV1.20B785,2013-08-17 12:09:00,
2013-08-17 08:10:00,52.1,50.1,30.26,SE,126,0.0,0.0,93,0.00,,,0.00,WeatherCatV1.20B785,2013-08-17 12:10:00,
2013-08-17 08:14:00,52.8,50.8,30.26,ESE,103,0.0,1.0,93,0.00,,,0.00,WeatherCatV1.20B785,2013-08-17 12:14:00,
2013-08-17 08:15:00,52.9,50.9,30.26,ESE,112,0.0,0.0,93,0.00,,,0.00,WeatherCatV1.20B785,2013-08-17 12:15:00,
2013-08-17 08:19:00,53.4,51.4,30.26,ESE,103,0.0,1.0,93,0.00,,,0.00,WeatherCatV1.20B785,2013-08-17 12:19:00,
2013-08-17 08:20:00,53.5,51.5,30.26,ESE,106,0.0,1.0,93,0.00,,,0.00,WeatherCatV1.20B785,2013-08-17 12:20:00,
2013-08-17 08:24:00,54.2,52.2,30.26,ESE,110,0.0,0.0,93,0.00,,,0.00,WeatherCatV1.20B785,2013-08-17 12:24:00,
2013-08-17 08:25:00,54.4,52.4,30.26,ESE,109,0.0,1.0,93,0.00,,,0.00,WeatherCatV1.20B785,2013-08-17 12:25:00,
2013-08-17 08:29:00,54.6,52.6,30.26,ESE,108,2.0,2.0,93,0.00,,,0.00,WeatherCatV1.20B785,2013-08-17 12:29:00,
2013-08-17 08:30:00,54.6,52.6,30.26,East,98,0.0,0.0,93,0.00,,,0.00,WeatherCatV1.20B785,2013-08-17 12:30:00,
2013-08-17 08:34:00,55.0,53.0,30.27,East,86,0.0,1.0,93,0.00,,,0.00,WeatherCatV1.20B785,2013-08-17 12:34:00,
2013-08-17 08:35:00,55.1,53.1,30.27,East,92,0.0,1.0,93,0.00,,,0.00,WeatherCatV1.20B785,2013-08-17 12:35:00,
2013-08-17 08:39:00,55.5,53.2,30.27,ESE,105,0.0,0.0,92,0.00,,,0.00,WeatherCatV1.20B785,2013-08-17 12:39:00,
2013-08-17 08:40:00,55.7,53.4,30.27,East,99,0.0,0.0,92,0.00,,,0.00,WeatherCatV1.20B785,2013-08-17 12:40:00,
2013-08-17 08:44:00,56.4,54.1,30.27,ESE,116,0.0,1.0,92,0.00,,,0.00,WeatherCatV1.20B785,2013-08-17 12:44:00,
2013-08-17 08:45:00,56.5,54.2,30.27,ESE,117,0.0,0.0,92,0.00,,,0.00,WeatherCatV1.20B785,2013-08-17 12:45:00,
2013-08-17 08:49:00,57.1,54.5,30.27,East,82,0.0,1.0,91,0.00,,,0.00,WeatherCatV1.20B785,2013-08-17 12:49:00,
2013-08-17 08:50:00,57.4,54.8,30.27,East,98,0.0,0.0,91,0.00,,,0.00,WeatherCatV1.20B785,2013-08-17 12:50:00,
2013-08-17 08:54:00,57.8,55.2,30.27,East,82,0.0,0.0,91,0.00,,,0.00,WeatherCatV1.20B785,2013-08-17 12:54:00,
2013-08-17 08:55:00,58.1,55.2,30.27,East,97,0.0,0.0,90,0.00,,,0.00,WeatherCatV1.20B785,2013-08-17 12:55:00,
2013-08-17 08:59:00,58.8,55.9,30.27,East,87,1.0,1.0,90,0.00,,,0.00,WeatherCatV1.20B785,2013-08-17 12:59:00,
2013-08-17 09:00:00,59.2,56.0,30.27,ESE,116,0.0,0.0,89,0.00,,,0.00,WeatherCatV1.20B785,2013-08-17 13:00:00,
2013-08-17 09:04:00,59.7,56.1,30.27,ESE,102,0.0,1.0,88,0.00,,,0.00,WeatherCatV1.20B785,2013-08-17 13:04:00,
2013-08-17 09:05:00,60.1,56.2,30.27,ESE,113,0.0,1.0,87,0.00,,,0.00,WeatherCatV1.20B785,2013-08-17 13:05:00,
2013-08-17 09:09:00,60.4,55.9,30.27,SE,132,2.0,5.0,85,0.00,,,0.00,WeatherCatV1.20B785,2013-08-17 13:09:00,
2013-08-17 09:10:00,60.6,56.4,30.27,ESE,117,1.0,1.0,86,0.00,,,0.00,WeatherCatV1.20B785,2013-08-17 13:10:00,
2013-08-17 09:14:00,60.8,55.9,30.27,SE,144,1.0,2.0,84,0.00,,,0.00,WeatherCatV1.20B785,2013-08-17 13:14:00,
2013-08-17 09:15:00,61.0,56.5,30.27,ESE,123,1.0,2.0,85,0.00,,,0.00,WeatherCatV1.20B785,2013-08-17 13:15:00,
2013-08-17 09:19:00,61.2,56.7,30.27,ESE,116,2.0,2.0,85,0.00,,,0.00,WeatherCatV1.20B785,2013-08-17 13:19:00,
2013-08-17 09:20:00,61.4,56.5,30.27,SE,128,1.0,1.0,84,0.00,,,0.00,WeatherCatV1.20B785,2013-08-17 13:20:00,
2013-08-17 09:24:00,61.8,56.9,30.27,SSE,149,1.0,2.0,84,0.00,,,0.00,WeatherCatV1.20B785,2013-08-17 13:24:00,
2013-08-17 09:25:00,61.9,57.0,30.27,SE,140,1.0,2.0,84,0.00,,,0.00,WeatherCatV1.20B785,2013-08-17 13:25:00,
2013-08-17 09:29:00,62.6,57.0,30.27,SSE,149,1.0,3.0,82,0.00,,,0.00,WeatherCatV1.20B785,2013-08-17 13:29:00,
2013-08-17 09:30:00,62.7,57.1,30.27,SE,141,1.0,1.0,82,0.00,,,0.00,WeatherCatV1.20B785,2013-08-17 13:30:00,
2013-08-17 09:34:00,63.3,57.7,30.27,SSE,148,2.0,3.0,82,0.00,,,0.00,WeatherCatV1.20B785,2013-08-17 13:34:00,
2013-08-17 09:35:00,63.3,57.7,30.27,SE,143,1.0,2.0,82,0.00,,,0.00,WeatherCatV1.20B785,2013-08-17 13:35:00,
2013-08-17 09:39:00,63.7,57.8,30.27,ESE,121,0.0,4.0,81,0.00,,,0.00,WeatherCatV1.20B785,2013-08-17 13:39:00,
2013-08-17 09:40:00,63.8,57.5,30.27,SE,132,1.0,1.0,80,0.00,,,0.00,WeatherCatV1.20B785,2013-08-17 13:40:00,
2013-08-17 09:44:00,64.3,58.3,30.27,ESE,113,2.0,2.0,81,0.00,,,0.00,WeatherCatV1.20B785,2013-08-17 13:44:00,
2013-08-17 09:45:00,64.4,58.4,30.27,SE,128,1.0,3.0,81,0.00,,,0.00,WeatherCatV1.20B785,2013-08-17 13:45:00,
2013-08-17 09:49:00,64.6,58.3,30.27,ESE,111,1.0,6.0,80,0.00,,,0.00,WeatherCatV1.20B785,2013-08-17 13:49:00,
2013-08-17 09:50:00,64.7,58.0,30.27,ESE,116,1.0,4.0,79,0.00,,,0.00,WeatherCatV1.20B785,2013-08-17 13:50:00,
2013-08-17 09:54:00,65.1,58.4,30.27,ESE,116,2.0,3.0,79,0.00,,,0.00,WeatherCatV1.20B785,2013-08-17 13:54:00,
2013-08-17 09:55:00,65.2,58.5,30.27,ESE,114,2.0,3.0,79,0.00,,,0.00,WeatherCatV1.20B785,2013-08-17 13:55:00,
2013-08-17 09:59:00,65.3,58.3,30.27,East,95,3.0,4.0,78,0.00,,,0.00,WeatherCatV1.20B785,2013-08-17 13:59:00,
2013-08-17 10:00:00,65.3,58.3,30.27,East,97,2.0,4.0,78,0.00,,,0.00,WeatherCatV1.20B785,2013-08-17 14:00:00,
2013-08-17 10:04:00,65.5,58.5,30.27,East,85,1.0,1.0,78,0.00,,,0.00,WeatherCatV1.20B785,2013-08-17 14:04:00,
2013-08-17 10:05:00,65.6,58.5,30.27,ESE,103,1.0,2.0,78,0.00,,,0.00,WeatherCatV1.20B785,2013-08-17 14:05:00,
2013-08-17 10:09:00,66.2,59.1,30.26,East,100,2.0,2.0,78,0.00,,,0.00,WeatherCatV1.20B785,2013-08-17 14:09:00,
2013-08-17 10:10:00,66.2,59.1,30.26,East,98,1.0,4.0,78,0.00,,,0.00,WeatherCatV1.20B785,2013-08-17 14:10:00,
2013-08-17 10:14:00,66.5,59.8,30.26,ESE,122,2.0,3.0,79,0.00,,,0.00,WeatherCatV1.20B785,2013-08-17 14:14:00,
2013-08-17 10:15:00,66.6,59.5,30.26,East,96,2.0,4.0,78,0.00,,,0.00,WeatherCatV1.20B785,2013-08-17 14:15:00,
2013-08-17 10:19:00,66.9,60.2,30.26,SSE,155,2.0,3.0,79,0.00,,,0.00,WeatherCatV1.20B785,2013-08-17 14:19:00,
2013-08-17 10:20:00,67.3,60.5,30.26,ESE,115,2.0,2.0,79,0.00,,,0.00,WeatherCatV1.20B785,2013-08-17 14:20:00,
2013-08-17 10:24:00,67.8,60.7,30.26,SSE,151,0.0,2.0,78,0.00,,,0.00,WeatherCatV1.20B785,2013-08-17 14:24:00,
2013-08-17 10:25:00,68.2,60.3,30.26,ESE,116,1.0,2.0,76,0.00,,,0.00,WeatherCatV1.20B785,2013-08-17 14:25:00,
2013-08-17 10:29:00,68.6,60.7,30.26,SE,127,3.0,3.0,76,0.00,,,0.00,WeatherCatV1.20B785,2013-08-17 14:29:00,
2013-08-17 10:30:00,68.8,60.5,30.26,ESE,109,1.0,3.0,75,0.00,,,0.00,WeatherCatV1.20B785,2013-08-17 14:30:00,
2013-08-17 10:34:00,68.9,61.4,30.26,East,95,0.0,3.0,77,0.00,,,0.00,WeatherCatV1.20B785,2013-08-17 14:34:00,
2013-08-17 10:35:00,69.2,62.0,30.26,East,95,1.0,1.0,78,0.00,,,0.00,WeatherCatV1.20B785,2013-08-17 14:35:00,
2013-08-17 10:39:00,69.4,61.1,30.26,ESE,103,2.0,3.0,75,0.00,,,0.00,WeatherCatV1.20B785,2013-08-17 14:39:00,
2013-08-17 10:40:00,69.4,61.1,30.25,East,90,2.0,3.0,75,0.00,,,0.00,WeatherCatV1.20B785,2013-08-17 14:40:00,
2013-08-17 10:44:00,69.6,61.3,30.25,East,80,3.0,3.0,75,0.00,,,0.00,WeatherCatV1.20B785,2013-08-17 14:44:00,
2013-08-17 10:45:00,69.6,60.9,30.25,East,97,2.0,4.0,74,0.00,,,0.00,WeatherCatV1.20B785,2013-08-17 14:45:00,
2013-08-17 10:49:00,69.8,61.9,30.25,ENE,72,2.0,3.0,76,0.00,,,0.00,WeatherCatV1.20B785,2013-08-17 14:49:00,
2013-08-17 10:50:00,69.9,61.6,30.25,East,82,2.0,2.0,75,0.00,,,0.00,WeatherCatV1.20B785,2013-08-17 14:50:00,
2013-08-17 10:54:00,70.3,62.4,30.25,ESE,122,0.0,1.0,76,0.00,,,0.00,WeatherCatV1.20B785,2013-08-17 14:54:00,
2013-08-17 10:55:00,70.6,61.9,30.25,ESE,119,1.0,2.0,74,0.00,,,0.00,WeatherCatV1.20B785,2013-08-17 14:55:00,
2013-08-17 10:59:00,71.0,62.3,30.25,East,83,1.0,3.0,74,0.00,,,0.00,WeatherCatV1.20B785,2013-08-17 14:59:00,
2013-08-17 11:00:00,71.1,61.6,30.25,ESE,105,1.0,2.0,72,0.00,,,0.00,WeatherCatV1.20B785,2013-08-17 15:00:00,
2013-08-17 11:04:00,71.3,62.6,30.25,East,79,0.0,3.0,74,0.00,,,0.00,WeatherCatV1.20B785,2013-08-17 15:04:00,
2013-08-17 11:05:00,71.4,62.3,30.25,East,95,1.0,1.0,73,0.00,,,0.00,WeatherCatV1.20B785,2013-08-17 15:05:00,
2013-08-17 11:09:00,71.6,62.5,30.25,ENE,73,2.0,4.0,73,0.00,,,0.00,WeatherCatV1.20B785,2013-08-17 15:09:00,
2013-08-17 11:10:00,71.5,62.0,30.25,East,91,2.0,3.0,72,0.00,,,0.00,WeatherCatV1.20B785,2013-08-17 15:10:00,
2013-08-17 11:14:00,71.5,62.0,30.25,ENE,71,3.0,4.0,72,0.00,,,0.00,WeatherCatV1.20B785,2013-08-17 15:14:00,
2013-08-17 11:15:00,71.5,61.6,30.25,East,93,2.0,3.0,71,0.00,,,0.00,WeatherCatV1.20B785,2013-08-17 15:15:00,
2013-08-17 11:19:00,71.8,63.0,30.25,East,91,2.0,3.0,74,0.00,,,0.00,WeatherCatV1.20B785,2013-08-17 15:19:00,
2013-08-17 11:20:00,71.8,62.3,30.25,ESE,110,2.0,2.0,72,0.00,,,0.00,WeatherCatV1.20B785,2013-08-17 15:20:00,
2013-08-17 11:24:00,72.2,62.3,30.25,East,79,0.0,2.0,71,0.00,,,0.00,WeatherCatV1.20B785,2013-08-17 15:24:00,
2013-08-17 11:25:00,72.3,62.8,30.25,East,94,1.0,1.0,72,0.00,,,0.00,WeatherCatV1.20B785,2013-08-17 15:25:00,
2013-08-17 11:29:00,72.7,63.1,30.25,ENE,72,0.0,2.0,72,0.00,,,0.00,WeatherCatV1.20B785,2013-08-17 15:29:00,
2013-08-17 11:30:00,72.9,64.1,30.25,East,87,1.0,3.0,74,0.00,,,0.00,WeatherCatV1.20B785,2013-08-17 15:30:00,
2013-08-17 11:34:00,72.9,62.1,30.25,East,89,2.0,7.0,69,0.00,,,0.00,WeatherCatV1.20B785,2013-08-17 15:34:00,
2013-08-17 11:35:00,73.0,63.0,30.25,East,84,2.0,3.0,71,0.00,,,0.00,WeatherCatV1.20B785,2013-08-17 15:35:00,
2013-08-17 11:39:00,73.3,62.1,30.25,East,95,3.0,6.0,68,0.00,,,0.00,WeatherCatV1.20B785,2013-08-17 15:39:00,
2013-08-17 11:40:00,73.3,60.8,30.25,East,84,3.0,3.0,65,0.00,,,0.00,WeatherCatV1.20B785,2013-08-17 15:40:00,
2013-08-17 11:44:00,73.6,61.1,30.25,East,89,2.0,2.0,65,0.00,,,0.00,WeatherCatV1.20B785,2013-08-17 15:44:00,
2013-08-17 11:45:00,73.7,61.2,30.25,East,97,2.0,2.0,65,0.00,,,0.00,WeatherCatV1.20B785,2013-08-17 15:45:00,
2013-08-17 11:49:00,74.0,60.6,30.25,SE,141,2.0,4.0,63,0.00,,,0.00,WeatherCatV1.20B785,2013-08-17 15:49:00,
2013-08-17 11:50:00,74.0,59.7,30.25,ESE,114,1.0,3.0,61,0.00,,,0.00,WeatherCatV1.20B785,2013-08-17 15:50:00,
2013-08-17 11:54:00,74.4,58.6,30.25,SSE,160,0.0,4.0,58,0.00,,,0.00,WeatherCatV1.20B785,2013-08-17 15:54:00,
2013-08-17 11:55:00,74.5,60.2,30.25,SE,145,2.0,2.0,61,0.00,,,0.00,WeatherCatV1.20B785,2013-08-17 15:55:00,
2013-08-17 11:59:00,75.3,60.0,30.25,ESE,120,2.0,4.0,59,0.00,,,0.00,WeatherCatV1.20B785,2013-08-17 15:59:00,
2013-08-17 12:00:00,75.3,58.0,30.25,SE,139,2.0,3.0,55,0.00,,,0.00,WeatherCatV1.20B785,2013-08-17 16:00:00,
2013-08-17 12:04:00,75.5,58.2,30.25,SE,136,3.0,7.0,55,0.00,,,0.00,WeatherCatV1.20B785,2013-08-17 16:04:00,
2013-08-17 12:05:00,75.5,58.2,30.25,SSE,147,2.0,5.0,55,0.00,,,0.00,WeatherCatV1.20B785,2013-08-17 16:05:00,
2013-08-17 12:09:00,75.4,58.1,30.24,East,94,1.0,4.0,55,0.00,,,0.00,WeatherCatV1.20B785,2013-08-17 16:09:00,
2013-08-17 12:10:00,75.3,58.0,30.25,ESE,121,2.0,5.0,55,0.00,,,0.00,WeatherCatV1.20B785,2013-08-17 16:10:00,
2013-08-17 12:14:00,74.9,57.1,30.24,East,100,2.0,7.0,54,0.00,,,0.00,WeatherCatV1.20B785,2013-08-17 16:14:00,
2013-08-17 12:15:00,74.7,57.4,30.24,East,99,3.0,3.0,55,0.00,,,0.00,WeatherCatV1.20B785,2013-08-17 16:15:00,
2013-08-17 12:19:00,74.8,57.5,30.24,SSE,155,2.0,5.0,55,0.00,,,0.00,WeatherCatV1.20B785,2013-08-17 16:19:00,
2013-08-17 12:20:00,74.9,58.6,30.24,SE,142,3.0,5.0,57,0.00,,,0.00,WeatherCatV1.20B785,2013-08-17 16:20:00,
2013-08-17 12:24:00,75.0,58.2,30.24,SSE,165,2.0,3.0,56,0.00,,,0.00,WeatherCatV1.20B785,2013-08-17 16:24:00,
2013-08-17 12:25:00,75.0,57.7,30.24,SSE,148,2.0,3.0,55,0.00,,,0.00,WeatherCatV1.20B785,2013-08-17 16:25:00,
2013-08-17 12:29:00,75.1,57.8,30.24,SSE,165,3.0,5.0,55,0.00,,,0.00,WeatherCatV1.20B785,2013-08-17 16:29:00,
2013-08-17 12:30:00,75.1,56.8,30.24,SSE,152,2.0,2.0,53,0.00,,,0.00,WeatherCatV1.20B785,2013-08-17 16:30:00,
2013-08-17 12:34:00,75.0,55.6,30.24,South,173,4.0,4.0,51,0.00,,,0.00,WeatherCatV1.20B785,2013-08-17 16:34:00,
2013-08-17 12:35:00,75.0,56.7,30.24,SSE,157,3.0,4.0,53,0.00,,,0.00,WeatherCatV1.20B785,2013-08-17 16:35:00,
2013-08-17 12:39:00,75.0,57.2,30.24,SSE,148,2.0,4.0,54,0.00,,,0.00,WeatherCatV1.20B785,2013-08-17 16:39:00,
2013-08-17 12:40:00,75.0,58.2,30.24,SSE,158,2.0,3.0,56,0.00,,,0.00,WeatherCatV1.20B785,2013-08-17 16:40:00,
2013-08-17 12:44:00,75.0,57.7,30.24,SE,140,0.0,2.0,55,0.00,,,0.00,WeatherCatV1.20B785,2013-08-17 16:44:00,
2013-08-17 12:45:00,75.0,58.7,30.24,SSE,153,2.0,2.0,57,0.00,,,0.00,WeatherCatV1.20B785,2013-08-17 16:45:00,
2013-08-17 12:49:00,75.2,56.9,30.24,SSE,159,3.0,3.0,53,0.00,,,0.00,WeatherCatV1.20B785,2013-08-17 16:49:00,
2013-08-17 12:50:00,75.2,56.9,30.24,SSE,156,2.0,3.0,53,0.00,,,0.00,WeatherCatV1.20B785,2013-08-17 16:50:00,
2013-08-17 12:54:00,75.2,56.9,30.24,SSE,153,1.0,2.0,53,0.00,,,0.00,WeatherCatV1.20B785,2013-08-17 16:54:00,
2013-08-17 12:55:00,75.3,57.5,30.24,SSE,156,2.0,4.0,54,0.00,,,0.00,WeatherCatV1.20B785,2013-08-17 16:55:00,
2013-08-17 12:59:00,75.3,57.5,30.24,SSW,197,5.0,6.0,54,0.00,,,0.00,WeatherCatV1.20B785,2013-08-17 16:59:00,
2013-08-17 13:00:00,75.3,57.5,30.24,South,180,2.0,6.0,54,0.00,,,0.00,WeatherCatV1.20B785,2013-08-17 17:00:00,
2013-08-17 13:04:00,75.7,58.4,30.24,SSE,167,4.0,5.0,55,0.00,,,0.00,WeatherCatV1.20B785,2013-08-17 17:04:00,
2013-08-17 13:05:00,75.7,57.8,30.24,South,177,3.0,6.0,54,0.00,,,0.00,WeatherCatV1.20B785,2013-08-17 17:05:00,
2013-08-17 13:09:00,75.8,58.0,30.24,SSE,153,2.0,4.0,54,0.00,,,0.00,WeatherCatV1.20B785,2013-08-17 17:09:00,
2013-08-17 13:10:00,75.8,56.9,30.24,SSE,163,3.0,3.0,52,0.00,,,0.00,WeatherCatV1.20B785,2013-08-17 17:10:00,
2013-08-17 13:14:00,75.8,58.0,30.24,South,180,2.0,3.0,54,0.00,,,0.00,WeatherCatV1.20B785,2013-08-17 17:14:00,
2013-08-17 13:15:00,75.8,57.4,30.24,SSE,166,3.0,4.0,53,0.00,,,0.00,WeatherCatV1.20B785,2013-08-17 17:15:00,
2013-08-17 13:19:00,75.9,57.0,30.24,SSE,162,3.0,8.0,52,0.00,,,0.00,WeatherCatV1.20B785,2013-08-17 17:19:00,
2013-08-17 13:20:00,75.9,58.0,30.24,South,173,3.0,3.0,54,0.00,,,0.00,WeatherCatV1.20B785,2013-08-17 17:20:00,
2013-08-17 13:24:00,75.9,59.1,30.24,SSE,160,1.0,2.0,56,0.00,,,0.00,WeatherCatV1.20B785,2013-08-17 17:24:00,
2013-08-17 13:25:00,75.9,58.5,30.24,SSE,165,3.0,3.0,55,0.00,,,0.00,WeatherCatV1.20B785,2013-08-17 17:25:00,
2013-08-17 13:29:00,75.3,57.0,30.24,SE,126,0.0,3.0,53,0.00,,,0.00,WeatherCatV1.20B785,2013-08-17 17:29:00,
2013-08-17 13:30:00,75.2,57.9,30.24,SE,129,2.0,2.0,55,0.00,,,0.00,WeatherCatV1.20B785,2013-08-17 17:30:00,
2013-08-17 13:34:00,75.1,57.8,30.24,SSE,155,2.0,3.0,55,0.00,,,0.00,WeatherCatV1.20B785,2013-08-17 17:34:00,
2013-08-17 13:35:00,75.1,56.8,30.24,SE,138,2.0,3.0,53,0.00,,,0.00,WeatherCatV1.20B785,2013-08-17 17:35:00,
2013-08-17 13:39:00,75.0,57.2,30.24,SSE,150,2.0,3.0,54,0.00,,,0.00,WeatherCatV1.20B785,2013-08-17 17:39:00,
2013-08-17 13:40:00,74.9,56.6,30.24,SSE,150,2.0,3.0,53,0.00,,,0.00,WeatherCatV1.20B785,2013-08-17 17:40:00,
2013-08-17 13:44:00,75.2,56.9,30.23,SSE,150,1.0,5.0,53,0.00,,,0.00,WeatherCatV1.20B785,2013-08-17 17:44:00,
2013-08-17 13:45:00,75.4,58.6,30.24,SSE,148,2.0,4.0,56,0.00,,,0.00,WeatherCatV1.20B785,2013-08-17 17:45:00,
2013-08-17 13:49:00,75.7,58.9,30.24,ENE,75,1.0,2.0,56,0.00,,,0.00,WeatherCatV1.20B785,2013-08-17 17:49:00,
2013-08-17 13:50:00,75.8,60.4,30.24,SE,139,1.0,2.0,59,0.00,,,0.00,WeatherCatV1.20B785,2013-08-17 17:50:00,
2013-08-17 13:54:00,75.8,56.9,30.24,SSE,155,1.0,4.0,52,0.00,,,0.00,WeatherCatV1.20B785,2013-08-17 17:54:00,
2013-08-17 13:55:00,75.9,58.0,30.23,SE,145,2.0,2.0,54,0.00,,,0.00,WeatherCatV1.20B785,2013-08-17 17:55:00,
2013-08-17 13:59:00,75.9,56.5,30.23,East,87,3.0,5.0,51,0.00,,,0.00,WeatherCatV1.20B785,2013-08-17 17:59:00,
2013-08-17 14:00:00,75.8,56.9,30.23,East,91,2.0,5.0,52,0.00,,,0.00,WeatherCatV1.20B785,2013-08-17 18:00:00,
2013-08-17 14:04:00,75.7,57.9,30.23,ENE,74,1.0,2.0,54,0.00,,,0.00,WeatherCatV1.20B785,2013-08-17 18:04:00,
2013-08-17 14:05:00,75.7,58.4,30.23,East,82,2.0,5.0,55,0.00,,,0.00,WeatherCatV1.20B785,2013-08-17 18:05:00,
2013-08-17 14:09:00,75.4,57.1,30.23,NNW,345,1.0,5.0,53,0.00,,,0.00,WeatherCatV1.20B785,2013-08-17 18:09:00,
2013-08-17 14:10:00,75.4,58.6,30.23,ENE,70,2.0,3.0,56,0.00,,,0.00,WeatherCatV1.20B785,2013-08-17 18:10:00,
2013-08-17 14:14:00,75.7,58.4,30.23,East,97,4.0,5.0,55,0.00,,,0.00,WeatherCatV1.20B785,2013-08-17 18:14:00,
2013-08-17 14:15:00,75.7,57.8,30.23,ENE,70,3.0,7.0,54,0.00,,,0.00,WeatherCatV1.20B785,2013-08-17 18:15:00,
2013-08-17 14:19:00,75.3,54.2,30.23,SSE,155,0.0,2.0,48,0.00,,,0.00,WeatherCatV1.20B785,2013-08-17 18:19:00,
2013-08-17 14:20:00,75.4,56.0,30.23,ESE,118,2.0,2.0,51,0.00,,,0.00,WeatherCatV1.20B785,2013-08-17 18:20:00,
2013-08-17 14:24:00,75.6,58.3,30.22,SSE,162,1.0,4.0,55,0.00,,,0.00,WeatherCatV1.20B785,2013-08-17 18:24:00,
2013-08-17 14:25:00,75.6,58.3,30.22,ESE,116,2.0,4.0,55,0.00,,,0.00,WeatherCatV1.20B785,2013-08-17 18:25:00,
2013-08-17 14:29:00,75.9,57.5,30.22,East,79,0.0,1.0,53,0.00,,,0.00,WeatherCatV1.20B785,2013-08-17 18:29:00,
2013-08-17 14:30:00,75.9,57.0,30.22,SE,127,1.0,3.0,52,0.00,,,0.00,WeatherCatV1.20B785,2013-08-17 18:30:00,
2013-08-17 14:34:00,76.0,58.1,30.22,SE,136,3.0,4.0,54,0.00,,,0.00,WeatherCatV1.20B785,2013-08-17 18:34:00,
2013-08-17 14:35:00,76.0,58.1,30.22,SE,133,1.0,4.0,54,0.00,,,0.00,WeatherCatV1.20B785,2013-08-17 18:35:00,
2013-08-17 14:39:00,76.2,58.3,30.22,South,191,3.0,4.0,54,0.00,,,0.00,WeatherCatV1.20B785,2013-08-17 18:39:00,
2013-08-17 14:40:00,76.2,58.3,30.22,SSE,152,2.0,4.0,54,0.00,,,0.00,WeatherCatV1.20B785,2013-08-17 18:40:00,
2013-08-17 14:44:00,77.0,56.9,30.22,SSE,153,1.0,4.0,50,0.00,,,0.00,WeatherCatV1.20B785,2013-08-17 18:44:00,
2013-08-17 14:45:00,77.0,56.9,30.22,SSE,163,3.0,3.0,50,0.00,,,0.00,WeatherCatV1.20B785,2013-08-17 18:45:00,
2013-08-17 14:49:00,76.7,57.7,30.22,ESE,107,1.0,2.0,52,0.00,,,0.00,WeatherCatV1.20B785,2013-08-17 18:49:00,
2013-08-17 14:50:00,76.7,56.6,30.22,SE,143,2.0,2.0,50,0.00,,,0.00,WeatherCatV1.20B785,2013-08-17 18:50:00,
2013-08-17 14:54:00,76.4,58.0,30.22,ENE,57,3.0,5.0,53,0.00,,,0.00,WeatherCatV1.20B785,2013-08-17 18:54:00,
2013-08-17 14:55:00,76.4,58.0,30.22,East,88,1.0,5.0,53,0.00,,,0.00,WeatherCatV1.20B785,2013-08-17 18:55:00,
2013-08-17 14:59:00,76.0,58.1,30.22,SE,134,1.0,2.0,54,0.00,,,0.00,WeatherCatV1.20B785,2013-08-17 18:59:00,
2013-08-17 15:00:00,76.0,58.1,30.22,East,88,2.0,2.0,54,0.00,,,0.00,WeatherCatV1.20B785,2013-08-17 19:00:00,
2013-08-17 15:04:00,75.7,56.8,30.22,SSE,148,0.0,3.0,52,0.00,,,0.00,WeatherCatV1.20B785,2013-08-17 19:04:00,
2013-08-17 15:05:00,75.7,56.8,30.22,SE,132,2.0,2.0,52,0.00,,,0.00,WeatherCatV1.20B785,2013-08-17 19:05:00,
2013-08-17 15:09:00,75.3,58.0,30.22,ESE,108,0.0,2.0,55,0.00,,,0.00,WeatherCatV1.20B785,2013-08-17 19:09:00,
2013-08-17 15:10:00,75.3,57.0,30.22,ESE,118,1.0,3.0,53,0.00,,,0.00,WeatherCatV1.20B785,2013-08-17 19:10:00,
2013-08-17 15:14:00,75.1,58.3,30.22,SE,143,0.0,2.0,56,0.00,,,0.00,WeatherCatV1.20B785,2013-08-17 19:14:00,
2013-08-17 15:15:00,75.1,58.3,30.22,SE,128,1.0,2.0,56,0.00,,,0.00,WeatherCatV1.20B785,2013-08-17 19:15:00,
2013-08-17 15:19:00,75.0,57.7,30.22,ESE,115,0.0,3.0,55,0.00,,,0.00,WeatherCatV1.20B785,2013-08-17 19:19:00,
2013-08-17 15:20:00,75.0,58.7,30.22,SE,128,1.0,0.0,57,0.00,,,0.00,WeatherCatV1.20B785,2013-08-17 19:20:00,
2013-08-17 15:24:00,74.8,58.0,30.22,ESE,103,1.0,2.0,56,0.00,,,0.00,WeatherCatV1.20B785,2013-08-17 19:24:00,
2013-08-17 15:25:00,74.8,58.0,30.22,ESE,111,1.0,2.0,56,0.00,,,0.00,WeatherCatV1.20B785,2013-08-17 19:25:00,
2013-08-17 15:29:00,74.7,59.4,30.22,East,82,0.0,1.0,59,0.00,,,0.00,WeatherCatV1.20B785,2013-08-17 19:29:00,
2013-08-17 15:30:00,74.7,59.9,30.22,ESE,104,1.0,1.0,60,0.00,,,0.00,WeatherCatV1.20B785,2013-08-17 19:30:00,
2013-08-17 15:34:00,74.7,60.8,30.21,SSE,153,0.0,2.0,62,0.00,,,0.00,WeatherCatV1.20B785,2013-08-17 19:34:00,
2013-08-17 15:35:00,74.7,60.8,30.21,SE,134,0.0,0.0,62,0.00,,,0.00,WeatherCatV1.20B785,2013-08-17 19:35:00,
2013-08-17 15:39:00,75.2,58.4,30.21,SSE,166,1.0,2.0,56,0.00,,,0.00,WeatherCatV1.20B785,2013-08-17 19:39:00,
2013-08-17 15:40:00,75.3,58.5,30.21,SSE,162,1.0,1.0,56,0.00,,,0.00,WeatherCatV1.20B785,2013-08-17 19:40:00,
2013-08-17 15:44:00,76.0,58.1,30.21,SE,136,0.0,1.0,54,0.00,,,0.00,WeatherCatV1.20B785,2013-08-17 19:44:00,
2013-08-17 15:45:00,76.0,58.1,30.21,SSE,147,1.0,1.0,54,0.00,,,0.00,WeatherCatV1.20B785,2013-08-17 19:45:00,
2013-08-17 15:49:00,76.5,61.1,30.21,East,89,1.0,1.0,59,0.00,,,0.00,WeatherCatV1.20B785,2013-08-17 19:49:00,
2013-08-17 15:50:00,76.5,61.1,30.21,SE,145,0.0,2.0,59,0.00,,,0.00,WeatherCatV1.20B785,2013-08-17 19:50:00,
2013-08-17 15:54:00,76.1,58.7,30.22,SE,141,1.0,3.0,55,0.00,,,0.00,WeatherCatV1.20B785,2013-08-17 19:54:00,
2013-08-17 15:55:00,76.0,58.6,30.22,SSE,148,1.0,2.0,55,0.00,,,0.00,WeatherCatV1.20B785,2013-08-17 19:55:00,
2013-08-17 15:59:00,75.6,58.8,30.22,SSE,152,2.0,3.0,56,0.00,,,0.00,WeatherCatV1.20B785,2013-08-17 19:59:00,
2013-08-17 16:00:00,75.7,58.9,30.22,SSE,154,2.0,3.0,56,0.00,,,0.00,WeatherCatV1.20B785,2013-08-17 20:00:00,
2013-08-17 16:04:00,76.2,61.3,30.21,SSE,162,1.0,2.0,60,0.00,,,0.00,WeatherCatV1.20B785,2013-08-17 20:04:00,
2013-08-17 16:05:00,75.9,60.0,30.21,SSE,164,2.0,2.0,58,0.00,,,0.00,WeatherCatV1.20B785,2013-08-17 20:05:00,
2013-08-17 16:09:00,76.9,58.4,30.21,SW,222,0.0,3.0,53,0.00,,,0.00,WeatherCatV1.20B785,2013-08-17 20:09:00,
2013-08-17 16:10:00,76.8,58.9,30.21,South,190,1.0,3.0,54,0.00,,,0.00,WeatherCatV1.20B785,2013-08-17 20:10:00,
2013-08-17 16:14:00,76.7,57.7,30.21,SE,131,0.0,1.0,52,0.00,,,0.00,WeatherCatV1.20B785,2013-08-17 20:14:00,
2013-08-17 16:15:00,76.8,57.8,30.21,SSE,161,1.0,2.0,52,0.00,,,0.00,WeatherCatV1.20B785,2013-08-17 20:15:00,
2013-08-17 16:19:00,75.7,57.9,30.21,SSE,158,2.0,3.0,54,0.00,,,0.00,WeatherCatV1.20B785,2013-08-17 20:19:00,
2013-08-17 16:20:00,75.8,57.4,30.21,SSE,152,1.0,3.0,53,0.00,,,0.00,WeatherCatV1.20B785,2013-08-17 20:20:00,
2013-08-17 16:24:00,75.6,58.3,30.21,SSE,166,3.0,3.0,55,0.00,,,0.00,WeatherCatV1.20B785,2013-08-17 20:24:00,
2013-08-17 16:25:00,75.5,59.2,30.21,SSE,155,2.0,2.0,57,0.00,,,0.00,WeatherCatV1.20B785,2013-08-17 20:25:00,
2013-08-17 16:29:00,76.2,58.3,30.21,SE,139,0.0,3.0,54,0.00,,,0.00,WeatherCatV1.20B785,2013-08-17 20:29:00,
2013-08-17 16:30:00,76.1,59.7,30.21,SSE,150,2.0,3.0,57,0.00,,,0.00,WeatherCatV1.20B785,2013-08-17 20:30:00,
2013-08-17 16:34:00,77.1,57.0,30.21,ESE,108,1.0,2.0,50,0.00,,,0.00,WeatherCatV1.20B785,2013-08-17 20:34:00,
2013-08-17 16:35:00,76.9,58.4,30.21,SSE,150,1.0,2.0,53,0.00,,,0.00,WeatherCatV1.20B785,2013-08-17 20:35:00,
2013-08-17 16:39:00,77.4,56.7,30.21,SSE,155,2.0,3.0,49,0.00,,,0.00,WeatherCatV1.20B785,2013-08-17 20:39:00,
2013-08-17 16:40:00,77.4,57.3,30.21,SE,141,1.0,6.0,50,0.00,,,0.00,WeatherCatV1.20B785,2013-08-17 20:40:00,
2013-08-17 16:44:00,78.0,58.4,30.21,SSW,197,2.0,3.0,51,0.00,,,0.00,WeatherCatV1.20B785,2013-08-17 20:44:00,
2013-08-17 16:45:00,77.9,58.8,30.21,South,170,2.0,3.0,52,0.00,,,0.00,WeatherCatV1.20B785,2013-08-17 20:45:00,
2013-08-17 16:49:00,78.3,57.5,30.21,SSE,156,2.0,3.0,49,0.00,,,0.00,WeatherCatV1.20B785,2013-08-17 20:49:00,
2013-08-17 16:50:00,78.3,58.7,30.21,SSE,164,2.0,2.0,51,0.00,,,0.00,WeatherCatV1.20B785,2013-08-17 20:50:00,
2013-08-17 16:54:00,78.2,57.5,30.21,SE,141,2.0,3.0,49,0.00,,,0.00,WeatherCatV1.20B785,2013-08-17 20:54:00,
2013-08-17 16:55:00,78.2,56.9,30.21,SSE,156,2.0,2.0,48,0.00,,,0.00,WeatherCatV1.20B785,2013-08-17 20:55:00,
2013-08-17 16:59:00,78.0,56.7,30.21,SSE,148,0.0,3.0,48,0.00,,,0.00,WeatherCatV1.20B785,2013-08-17 20:59:00,
2013-08-17 17:00:00,77.9,56.6,30.21,SSE,159,2.0,4.0,48,0.00,,,0.00,WeatherCatV1.20B785,2013-08-17 21:00:00,
2013-08-17 17:04:00,78.1,56.8,30.21,SSE,156,2.0,4.0,48,0.00,,,0.00,WeatherCatV1.20B785,2013-08-17 21:04:00,
2013-08-17 17:05:00,78.1,57.4,30.21,SSE,156,2.0,3.0,49,0.00,,,0.00,WeatherCatV1.20B785,2013-08-17 21:05:00,
2013-08-17 17:09:00,78.1,57.9,30.21,SSE,160,2.0,5.0,50,0.00,,,0.00,WeatherCatV1.20B785,2013-08-17 21:09:00,
2013-08-17 17:10:00,78.1,57.9,30.21,SSE,149,2.0,3.0,50,0.00,,,0.00,WeatherCatV1.20B785,2013-08-17 21:10:00,
2013-08-17 17:14:00,77.9,57.7,30.21,SSE,161,4.0,6.0,50,0.00,,,0.00,WeatherCatV1.20B785,2013-08-17 21:14:00,
2013-08-17 17:15:00,78.0,57.8,30.21,SSE,164,2.0,6.0,50,0.00,,,0.00,WeatherCatV1.20B785,2013-08-17 21:15:00,
2013-08-17 17:19:00,78.0,57.8,30.21,South,187,0.0,2.0,50,0.00,,,0.00,WeatherCatV1.20B785,2013-08-17 21:19:00,
2013-08-17 17:20:00,78.0,57.8,30.21,South,173,3.0,4.0,50,0.00,,,0.00,WeatherCatV1.20B785,2013-08-17 21:20:00,
2013-08-17 17:24:00,78.1,57.9,30.21,SW,218,2.0,3.0,50,0.00,,,0.00,WeatherCatV1.20B785,2013-08-17 21:24:00,
2013-08-17 17:25:00,78.1,57.4,30.21,SSE,163,2.0,3.0,49,0.00,,,0.00,WeatherCatV1.20B785,2013-08-17 21:25:00,
2013-08-17 17:29:00,78.0,57.3,30.21,SSE,156,1.0,1.0,49,0.00,,,0.00,WeatherCatV1.20B785,2013-08-17 21:29:00,
2013-08-17 17:30:00,78.0,57.8,30.21,SSE,156,1.0,2.0,50,0.00,,,0.00,WeatherCatV1.20B785,2013-08-17 21:30:00,
2013-08-17 17:34:00,78.2,56.9,30.21,ESE,105,0.0,1.0,48,0.00,,,0.00,WeatherCatV1.20B785,2013-08-17 21:34:00,
2013-08-17 17:35:00,78.2,58.0,30.21,SSE,151,1.0,1.0,50,0.00,,,0.00,WeatherCatV1.20B785,2013-08-17 21:35:00,
2013-08-17 17:39:00,79.1,58.8,30.21,SSW,203,0.0,0.0,50,0.00,,,0.00,WeatherCatV1.20B785,2013-08-17 21:39:00,
2013-08-17 17:40:00,78.8,58.6,30.21,SSE,163,0.0,0.0,50,0.00,,,0.00,WeatherCatV1.20B785,2013-08-17 21:40:00,
2013-08-17 17:44:00,79.3,58.5,30.20,ESE,113,0.0,1.0,49,0.00,,,0.00,WeatherCatV1.20B785,2013-08-17 21:44:00,
2013-08-17 17:45:00,79.6,59.8,30.21,South,178,0.0,3.0,51,0.00,,,0.00,WeatherCatV1.20B785,2013-08-17 21:45:00,
2013-08-17 17:49:00,78.5,57.7,30.20,SE,143,1.0,5.0,49,0.00,,,0.00,WeatherCatV1.20B785,2013-08-17 21:49:00,
2013-08-17 17:50:00,78.9,59.2,30.20,SE,145,0.0,1.0,51,0.00,,,0.00,WeatherCatV1.20B785,2013-08-17 21:50:00,
2013-08-17 17:54:00,77.5,57.9,30.20,SSE,153,0.0,3.0,51,0.00,,,0.00,WeatherCatV1.20B785,2013-08-17 21:54:00,
2013-08-17 17:55:00,77.9,58.3,30.20,ESE,118,1.0,1.0,51,0.00,,,0.00,WeatherCatV1.20B785,2013-08-17 21:55:00,
2013-08-17 17:59:00,76.5,59.1,30.20,SSE,155,0.0,0.0,55,0.00,,,0.00,WeatherCatV1.20B785,2013-08-17 21:59:00,
2013-08-17 18:00:00,76.1,59.2,30.20,SE,138,1.0,1.0,56,0.00,,,0.00,WeatherCatV1.20B785,2013-08-17 22:00:00,
2013-08-17 18:04:00,75.5,58.2,30.20,SSE,155,1.0,1.0,55,0.00,,,0.00,WeatherCatV1.20B785,2013-08-17 22:04:00,
2013-08-17 18:05:00,75.2,58.4,30.21,SSE,149,0.0,1.0,56,0.00,,,0.00,WeatherCatV1.20B785,2013-08-17 22:05:00,
2013-08-17 18:09:00,74.8,60.4,30.20,SSE,155,0.0,0.0,61,0.00,,,0.00,WeatherCatV1.20B785,2013-08-17 22:09:00,
2013-08-17 18:10:00,74.6,60.7,30.20,SSE,153,0.0,0.0,62,0.00,,,0.00,WeatherCatV1.20B785,2013-08-17 22:10:00,
2013-08-17 18:14:00,74.6,61.6,30.20,SSE,155,0.0,0.0,64,0.00,,,0.00,WeatherCatV1.20B785,2013-08-17 22:14:00,
2013-08-17 18:15:00,74.6,61.6,30.21,SSE,156,0.0,0.0,64,0.00,,,0.00,WeatherCatV1.20B785,2013-08-17 22:15:00,
2013-08-17 18:19:00,74.6,61.6,30.20,SW,220,0.0,0.0,64,0.00,,,0.00,WeatherCatV1.20B785,2013-08-17 22:19:00,
2013-08-17 18:20:00,74.6,61.6,30.20,SSW,200,0.0,0.0,64,0.00,,,0.00,WeatherCatV1.20B785,2013-08-17 22:20:00,
2013-08-17 18:24:00,74.7,62.6,30.20,SW,222,0.0,0.0,66,0.00,,,0.00,WeatherCatV1.20B785,2013-08-17 22:24:00,
2013-08-17 18:25:00,74.9,61.9,30.20,SW,218,0.0,0.0,64,0.00,,,0.00,WeatherCatV1.20B785,2013-08-17 22:25:00,
2013-08-17 18:29:00,75.0,62.8,30.20,SW,223,0.0,1.0,66,0.00,,,0.00,WeatherCatV1.20B785,2013-08-17 22:29:00,
2013-08-17 18:30:00,75.2,63.0,30.20,SW,221,0.0,0.0,66,0.00,,,0.00,WeatherCatV1.20B785,2013-08-17 22:30:00,
2013-08-17 18:34:00,75.5,63.3,30.20,SW,222,0.0,1.0,66,0.00,,,0.00,WeatherCatV1.20B785,2013-08-17 22:34:00,
2013-08-17 18:35:00,75.5,62.9,30.20,SW,222,0.0,0.0,65,0.00,,,0.00,WeatherCatV1.20B785,2013-08-17 22:35:00,
2013-08-17 18:39:00,75.3,62.7,30.20,SW,222,0.0,0.0,65,0.00,,,0.00,WeatherCatV1.20B785,2013-08-17 22:39:00,
2013-08-17 18:40:00,75.2,62.6,30.20,SW,217,0.0,1.0,65,0.00,,,0.00,WeatherCatV1.20B785,2013-08-17 22:40:00,
2013-08-17 18:44:00,74.7,61.7,30.20,SW,222,0.0,2.0,64,0.00,,,0.00,WeatherCatV1.20B785,2013-08-17 22:44:00,
2013-08-17 18:45:00,74.3,62.2,30.20,SW,223,0.0,1.0,66,0.00,,,0.00,WeatherCatV1.20B785,2013-08-17 22:45:00,
2013-08-17 18:49:00,73.9,62.2,30.20,SW,228,0.0,1.0,67,0.00,,,0.00,WeatherCatV1.20B785,2013-08-17 22:49:00,
2013-08-17 18:50:00,73.8,62.1,30.20,SW,226,0.0,0.0,67,0.00,,,0.00,WeatherCatV1.20B785,2013-08-17 22:50:00,
2013-08-17 18:54:00,73.5,62.3,30.20,SW,228,0.0,0.0,68,0.00,,,0.00,WeatherCatV1.20B785,2013-08-17 22:54:00,
2013-08-17 18:55:00,73.2,62.0,30.20,SW,228,0.0,0.0,68,0.00,,,0.00,WeatherCatV1.20B785,2013-08-17 22:55:00,
2013-08-17 18:59:00,72.6,61.8,30.20,SW,228,0.0,1.0,69,0.00,,,0.00,WeatherCatV1.20B785,2013-08-17 22:59:00,
2013-08-17 19:00:00,72.0,61.2,30.20,SW,228,0.0,1.0,69,0.00,,,0.00,WeatherCatV1.20B785,2013-08-17 23:00:00,
2013-08-17 19:04:00,71.2,61.7,30.20,SW,225,0.0,1.0,72,0.00,,,0.00,WeatherCatV1.20B785,2013-08-17 23:04:00,
2013-08-17 19:05:00,70.8,61.3,30.20,SW,226,0.0,1.0,72,0.00,,,0.00,WeatherCatV1.20B785,2013-08-17 23:05:00,
2013-08-17 19:09:00,70.2,61.1,30.20,SW,225,0.0,1.0,73,0.00,,,0.00,WeatherCatV1.20B785,2013-08-17 23:09:00,
2013-08-17 19:10:00,69.9,61.2,30.20,SW,225,0.0,0.0,74,0.00,,,0.00,WeatherCatV1.20B785,2013-08-17 23:10:00,
2013-08-17 19:14:00,69.6,61.3,30.20,SW,222,0.0,1.0,75,0.00,,,0.00,WeatherCatV1.20B785,2013-08-17 23:14:00,
2013-08-17 19:15:00,69.3,61.0,30.20,SW,223,0.0,1.0,75,0.00,,,0.00,WeatherCatV1.20B785,2013-08-17 23:15:00,
2013-08-17 19:19:00,69.0,61.1,30.20,SW,222,0.0,0.0,76,0.00,,,0.00,WeatherCatV1.20B785,2013-08-17 23:19:00,
2013-08-17 19:20:00,68.9,61.0,30.20,SW,222,0.0,0.0,76,0.00,,,0.00,WeatherCatV1.20B785,2013-08-17 23:20:00,
2013-08-17 19:24:00,68.7,61.2,30.20,SW,222,0.0,0.0,77,0.00,,,0.00,WeatherCatV1.20B785,2013-08-17 23:24:00,
2013-08-17 19:25:00,68.7,61.2,30.20,SW,222,0.0,0.0,77,0.00,,,0.00,WeatherCatV1.20B785,2013-08-17 23:25:00,
2013-08-17 19:29:00,68.4,61.3,30.20,SW,222,0.0,1.0,78,0.00,,,0.00,WeatherCatV1.20B785,2013-08-17 23:29:00,
2013-08-17 19:30:00,68.4,61.3,30.20,SW,222,0.0,1.0,78,0.00,,,0.00,WeatherCatV1.20B785,2013-08-17 23:30:00,
2013-08-17 19:34:00,68.1,61.3,30.19,SSW,207,2.0,2.0,79,0.00,,,0.00,WeatherCatV1.20B785,2013-08-17 23:34:00,
2013-08-17 19:35:00,68.1,61.3,30.20,SW,216,0.0,2.0,79,0.00,,,0.00,WeatherCatV1.20B785,2013-08-17 23:35:00,
2013-08-17 19:39:00,67.8,61.4,30.20,SW,217,0.0,1.0,80,0.00,,,0.00,WeatherCatV1.20B785,2013-08-17 23:39:00,
2013-08-17 19:40:00,67.7,61.3,30.20,SW,215,1.0,0.0,80,0.00,,,0.00,WeatherCatV1.20B785,2013-08-17 23:40:00,
2013-08-17 19:44:00,67.5,61.1,30.20,SW,217,0.0,0.0,80,0.00,,,0.00,WeatherCatV1.20B785,2013-08-17 23:44:00,
2013-08-17 19:45:00,67.3,60.9,30.20,SW,217,0.0,0.0,80,0.00,,,0.00,WeatherCatV1.20B785,2013-08-17 23:45:00,
2013-08-17 19:49:00,67.1,61.1,30.20,SW,217,0.0,1.0,81,0.00,,,0.00,WeatherCatV1.20B785,2013-08-17 23:49:00,
2013-08-17 19:50:00,66.9,60.9,30.20,SW,215,0.0,1.0,81,0.00,,,0.00,WeatherCatV1.20B785,2013-08-17 23:50:00,
2013-08-17 19:54:00,66.6,60.9,30.20,SSW,208,0.0,0.0,82,0.00,,,0.00,WeatherCatV1.20B785,2013-08-17 23:54:00,
2013-08-17 19:55:00,66.4,60.7,30.20,SSW,210,0.0,0.0,82,0.00,,,0.00,WeatherCatV1.20B785,2013-08-17 23:55:00,
2013-08-17 19:59:00,66.3,60.6,30.20,SSW,208,0.0,0.0,82,0.00,,,0.00,WeatherCatV1.20B785,2013-08-17 23:59:00,
2013-08-17 20:00:00,66.1,60.8,30.20,SSW,208,0.0,0.0,83,0.00,,,0.00,WeatherCatV1.20B785,2013-08-18 00:00:00,
2013-08-17 20:04:00,65.8,60.5,30.20,SSW,208,0.0,0.0,83,0.00,,,0.00,WeatherCatV1.20B785,2013-08-18 00:04:00,
2013-08-17 20:05:00,65.7,60.4,30.20,SSW,208,0.0,0.0,83,0.00,,,0.00,WeatherCatV1.20B785,2013-08-18 00:05:00,
2013-08-17 20:09:00,65.4,60.4,30.20,SSW,208,0.0,1.0,84,0.00,,,0.00,WeatherCatV1.20B785,2013-08-18 00:09:00,
2013-08-17 20:10:00,65.3,60.3,30.20,SSW,208,0.0,0.0,84,0.00,,,0.00,WeatherCatV1.20B785,2013-08-18 00:10:00,
2013-08-17 20:14:00,65.0,60.4,30.19,SSW,208,0.0,0.0,85,0.00,,,0.00,WeatherCatV1.20B785,2013-08-18 00:14:00,
2013-08-17 20:15:00,64.9,60.3,30.19,SSW,208,0.0,0.0,85,0.00,,,0.00,WeatherCatV1.20B785,2013-08-18 00:15:00,
2013-08-17 20:19:00,64.7,60.1,30.19,SSW,208,0.0,0.0,85,0.00,,,0.00,WeatherCatV1.20B785,2013-08-18 00:19:00,
2013-08-17 20:20:00,64.5,60.2,30.19,SSW,208,0.0,0.0,86,0.00,,,0.00,WeatherCatV1.20B785,2013-08-18 00:20:00,
2013-08-17 20:24:00,64.2,59.9,30.19,SSW,208,0.0,0.0,86,0.00,,,0.00,WeatherCatV1.20B785,2013-08-18 00:24:00,
2013-08-17 20:25:00,64.0,59.7,30.20,SSW,208,0.0,0.0,86,0.00,,,0.00,WeatherCatV1.20B785,2013-08-18 00:25:00,
2013-08-17 20:29:00,63.7,59.4,30.20,SSW,208,0.0,0.0,86,0.00,,,0.00,WeatherCatV1.20B785,2013-08-18 00:29:00,
2013-08-17 20:30:00,63.5,59.2,30.20,SSW,208,0.0,0.0,86,0.00,,,0.00,WeatherCatV1.20B785,2013-08-18 00:30:00,
2013-08-17 20:34:00,63.2,58.9,30.20,SSW,208,0.0,0.0,86,0.00,,,0.00,WeatherCatV1.20B785,2013-08-18 00:34:00,
2013-08-17 20:35:00,63.1,59.2,30.20,SSW,208,0.0,0.0,87,0.00,,,0.00,WeatherCatV1.20B785,2013-08-18 00:35:00,
2013-08-17 20:39:00,62.9,59.0,30.20,SSW,208,0.0,1.0,87,0.00,,,0.00,WeatherCatV1.20B785,2013-08-18 00:39:00,
2013-08-17 20:40:00,62.8,58.9,30.20,SSW,208,0.0,0.0,87,0.00,,,0.00,WeatherCatV1.20B785,2013-08-18 00:40:00,
2013-08-17 20:44:00,62.6,58.7,30.20,SSW,208,0.0,0.0,87,0.00,,,0.00,WeatherCatV1.20B785,2013-08-18 00:44:00,
2013-08-17 20:45:00,62.6,58.7,30.20,SSW,208,0.0,0.0,87,0.00,,,0.00,WeatherCatV1.20B785,2013-08-18 00:45:00,
2013-08-17 20:49:00,62.4,58.5,30.20,SSW,208,0.0,0.0,87,0.00,,,0.00,WeatherCatV1.20B785,2013-08-18 00:49:00,
2013-08-17 20:50:00,62.3,58.4,30.20,SSW,208,0.0,0.0,87,0.00,,,0.00,WeatherCatV1.20B785,2013-08-18 00:50:00,
2013-08-17 20:54:00,62.1,58.2,30.20,SSW,207,0.0,0.0,87,0.00,,,0.00,WeatherCatV1.20B785,2013-08-18 00:54:00,
2013-08-17 20:55:00,61.9,58.0,30.20,SSW,208,0.0,0.0,87,0.00,,,0.00,WeatherCatV1.20B785,2013-08-18 00:55:00,
2013-08-17 20:59:00,61.7,58.1,30.20,SSW,208,0.0,0.0,88,0.00,,,0.00,WeatherCatV1.20B785,2013-08-18 00:59:00,
2013-08-17 21:00:00,61.6,58.0,30.20,SSW,208,0.0,0.0,88,0.00,,,0.00,WeatherCatV1.20B785,2013-08-18 01:00:00,
2013-08-17 21:04:00,61.4,57.8,30.20,SSW,208,0.0,0.0,88,0.00,,,0.00,WeatherCatV1.20B785,2013-08-18 01:04:00,
2013-08-17 21:05:00,61.3,57.7,30.20,SSW,208,0.0,0.0,88,0.00,,,0.00,WeatherCatV1.20B785,2013-08-18 01:05:00,
2013-08-17 21:09:00,61.1,57.5,30.20,SSW,208,0.0,0.0,88,0.00,,,0.00,WeatherCatV1.20B785,2013-08-18 01:09:00,
2013-08-17 21:10:00,61.0,57.4,30.20,SSW,208,0.0,0.0,88,0.00,,,0.00,WeatherCatV1.20B785,2013-08-18 01:10:00,
2013-08-17 21:14:00,60.8,57.2,30.20,SSW,208,0.0,0.0,88,0.00,,,0.00,WeatherCatV1.20B785,2013-08-18 01:14:00,
2013-08-17 21:15:00,60.8,57.2,30.21,SSW,208,0.0,0.0,88,0.00,,,0.00,WeatherCatV1.20B785,2013-08-18 01:15:00,
2013-08-17 21:19:00,60.6,57.3,30.21,SSW,208,0.0,0.0,89,0.00,,,0.00,WeatherCatV1.20B785,2013-08-18 01:19:00,
2013-08-17 21:20:00,60.5,57.2,30.21,SSW,208,0.0,0.0,89,0.00,,,0.00,WeatherCatV1.20B785,2013-08-18 01:20:00,
2013-08-17 21:24:00,60.4,57.1,30.21,SSW,208,0.0,0.0,89,0.00,,,0.00,WeatherCatV1.20B785,2013-08-18 01:24:00,
2013-08-17 21:25:00,60.3,57.0,30.21,SSW,208,0.0,0.0,89,0.00,,,0.00,WeatherCatV1.20B785,2013-08-18 01:25:00,
2013-08-17 21:29:00,60.2,56.9,30.21,SSW,208,0.0,0.0,89,0.00,,,0.00,WeatherCatV1.20B785,2013-08-18 01:29:00,
2013-08-17 21:30:00,60.2,57.0,30.21,SSW,208,0.0,0.0,89,0.00,,,0.00,WeatherCatV1.20B785,2013-08-18 01:30:00,
2013-08-17 21:34:00,60.2,56.9,30.21,SSW,203,0.0,0.0,89,0.00,,,0.00,WeatherCatV1.20B785,2013-08-18 01:34:00,
2013-08-17 21:35:00,60.1,56.8,30.21,SSW,206,0.0,0.0,89,0.00,,,0.00,WeatherCatV1.20B785,2013-08-18 01:35:00,
2013-08-17 21:39:00,60.2,56.9,30.21,SSW,203,0.0,0.0,89,0.00,,,0.00,WeatherCatV1.20B785,2013-08-18 01:39:00,
2013-08-17 21:40:00,60.3,57.0,30.21,SSW,204,0.0,0.0,89,0.00,,,0.00,WeatherCatV1.20B785,2013-08-18 01:40:00,
2013-08-17 21:44:00,60.3,57.0,30.21,SSW,201,0.0,0.0,89,0.00,,,0.00,WeatherCatV1.20B785,2013-08-18 01:44:00,
2013-08-17 21:45:00,60.3,57.0,30.21,SSW,202,0.0,0.0,89,0.00,,,0.00,WeatherCatV1.20B785,2013-08-18 01:45:00,
2013-08-17 21:49:00,60.3,57.0,30.21,SSW,202,0.0,0.0,89,0.00,,,0.00,WeatherCatV1.20B785,2013-08-18 01:49:00,
2013-08-17 21:50:00,60.3,57.0,30.21,SSW,201,0.0,0.0,89,0.00,,,0.00,WeatherCatV1.20B785,2013-08-18 01:50:00,
2013-08-17 21:54:00,60.3,57.0,30.21,SSW,201,0.0,0.0,89,0.00,,,0.00,WeatherCatV1.20B785,2013-08-18 01:54:00,
2013-08-17 21:55:00,60.3,57.0,30.21,SSW,201,0.0,0.0,89,0.00,,,0.00,WeatherCatV1.20B785,2013-08-18 01:55:00,
2013-08-17 21:59:00,60.1,56.8,30.21,SSW,201,0.0,0.0,89,0.00,,,0.00,WeatherCatV1.20B785,2013-08-18 01:59:00,
2013-08-17 22:00:00,60.1,56.8,30.21,SSW,201,0.0,0.0,89,0.00,,,0.00,WeatherCatV1.20B785,2013-08-18 02:00:00,
2013-08-17 22:04:00,59.9,56.7,30.21,SSW,201,0.0,0.0,89,0.00,,,0.00,WeatherCatV1.20B785,2013-08-18 02:04:00,
2013-08-17 22:05:00,59.9,56.6,30.21,SSW,201,0.0,0.0,89,0.00,,,0.00,WeatherCatV1.20B785,2013-08-18 02:05:00,
2013-08-17 22:09:00,59.7,56.5,30.21,SSW,201,0.0,0.0,89,0.00,,,0.00,WeatherCatV1.20B785,2013-08-18 02:09:00,
2013-08-17 22:10:00,59.6,56.3,30.21,SSW,201,0.0,0.0,89,0.00,,,0.00,WeatherCatV1.20B785,2013-08-18 02:10:00,
2013-08-17 22:14:00,59.5,56.6,30.21,SSW,201,0.0,0.0,90,0.00,,,0.00,WeatherCatV1.20B785,2013-08-18 02:14:00,
2013-08-17 22:15:00,59.5,56.6,30.21,SSW,201,0.0,0.0,90,0.00,,,0.00,WeatherCatV1.20B785,2013-08-18 02:15:00,
2013-08-17 22:19:00,59.3,56.4,30.21,SSW,201,0.0,0.0,90,0.00,,,0.00,WeatherCatV1.20B785,2013-08-18 02:19:00,
2013-08-17 22:20:00,59.2,56.3,30.21,SSW,201,0.0,0.0,90,0.00,,,0.00,WeatherCatV1.20B785,2013-08-18 02:20:00,
2013-08-17 22:24:00,58.9,56.0,30.21,SSW,201,0.0,0.0,90,0.00,,,0.00,WeatherCatV1.20B785,2013-08-18 02:24:00,
2013-08-17 22:25:00,58.9,56.0,30.21,SSW,201,0.0,0.0,90,0.00,,,0.00,WeatherCatV1.20B785,2013-08-18 02:25:00,
2013-08-17 22:29:00,58.7,55.8,30.21,SSW,201,0.0,0.0,90,0.00,,,0.00,WeatherCatV1.20B785,2013-08-18 02:29:00,
2013-08-17 22:30:00,58.7,55.8,30.21,SSW,201,0.0,0.0,90,0.00,,,0.00,WeatherCatV1.20B785,2013-08-18 02:30:00,
2013-08-17 22:34:00,58.6,55.7,30.22,SSW,201,0.0,0.0,90,0.00,,,0.00,WeatherCatV1.20B785,2013-08-18 02:34:00,
2013-08-17 22:35:00,58.6,55.7,30.22,SSW,201,0.0,0.0,90,0.00,,,0.00,WeatherCatV1.20B785,2013-08-18 02:35:00,
2013-08-17 22:39:00,58.6,56.0,30.22,SSW,201,0.0,0.0,91,0.00,,,0.00,WeatherCatV1.20B785,2013-08-18 02:39:00,
2013-08-17 22:40:00,58.6,56.0,30.22,SSW,201,0.0,0.0,91,0.00,,,0.00,WeatherCatV1.20B785,2013-08-18 02:40:00,
2013-08-17 22:44:00,58.6,56.0,30.22,SSW,204,0.0,0.0,91,0.00,,,0.00,WeatherCatV1.20B785,2013-08-18 02:44:00,
2013-08-17 22:45:00,58.6,56.0,30.22,SSW,203,0.0,0.0,91,0.00,,,0.00,WeatherCatV1.20B785,2013-08-18 02:45:00,
2013-08-17 22:49:00,58.6,56.0,30.22,SSW,204,0.0,0.0,91,0.00,,,0.00,WeatherCatV1.20B785,2013-08-18 02:49:00,
2013-08-17 22:50:00,58.6,56.0,30.22,SSW,204,0.0,0.0,91,0.00,,,0.00,WeatherCatV1.20B785,2013-08-18 02:50:00,
2013-08-17 22:54:00,58.5,55.6,30.22,SSW,204,0.0,0.0,90,0.00,,,0.00,WeatherCatV1.20B785,2013-08-18 02:54:00,
2013-08-17 22:55:00,58.5,55.9,30.22,SSW,204,0.0,0.0,91,0.00,,,0.00,WeatherCatV1.20B785,2013-08-18 02:55:00,
2013-08-17 22:59:00,58.3,55.4,30.21,SSW,204,0.0,0.0,90,0.00,,,0.00,WeatherCatV1.20B785,2013-08-18 02:59:00,
2013-08-17 23:00:00,58.4,55.5,30.21,SSW,204,0.0,0.0,90,0.00,,,0.00,WeatherCatV1.20B785,2013-08-18 03:00:00,
2013-08-17 23:04:00,58.2,55.6,30.22,SSW,204,0.0,0.0,91,0.00,,,0.00,WeatherCatV1.20B785,2013-08-18 03:04:00,
2013-08-17 23:05:00,58.2,55.3,30.22,SSW,204,0.0,0.0,90,0.00,,,0.00,WeatherCatV1.20B785,2013-08-18 03:05:00,
2013-08-17 23:09:00,58.1,55.5,30.21,SSW,203,0.0,0.0,91,0.00,,,0.00,WeatherCatV1.20B785,2013-08-18 03:09:00,
2013-08-17 23:10:00,58.0,55.4,30.21,SSW,203,0.0,0.0,91,0.00,,,0.00,WeatherCatV1.20B785,2013-08-18 03:10:00,
2013-08-17 23:14:00,57.8,54.9,30.21,SSW,203,0.0,0.0,90,0.00,,,0.00,WeatherCatV1.20B785,2013-08-18 03:14:00,
2013-08-17 23:15:00,57.8,54.9,30.21,SSW,203,0.0,0.0,90,0.00,,,0.00,WeatherCatV1.20B785,2013-08-18 03:15:00,
2013-08-17 23:19:00,57.4,54.5,30.22,SSW,203,0.0,0.0,90,0.00,,,0.00,WeatherCatV1.20B785,2013-08-18 03:19:00,
2013-08-17 23:20:00,57.4,54.5,30.22,SSW,203,0.0,0.0,90,0.00,,,0.00,WeatherCatV1.20B785,2013-08-18 03:20:00,
2013-08-17 23:24:00,57.5,54.9,30.22,SSW,203,0.0,0.0,91,0.00,,,0.00,WeatherCatV1.20B785,2013-08-18 03:24:00,
2013-08-17 23:25:00,57.5,54.9,30.22,SSW,203,0.0,0.0,91,0.00,,,0.00,WeatherCatV1.20B785,2013-08-18 03:25:00,
2013-08-17 23:29:00,57.4,54.8,30.21,SSW,203,0.0,0.0,91,0.00,,,0.00,WeatherCatV1.20B785,2013-08-18 03:29:00,
2013-08-17 23:30:00,57.3,54.7,30.21,SSW,203,0.0,0.0,91,0.00,,,0.00,WeatherCatV1.20B785,2013-08-18 03:30:00,
2013-08-17 23:34:00,57.1,54.5,30.21,SSW,203,0.0,0.0,91,0.00,,,0.00,WeatherCatV1.20B785,2013-08-18 03:34:00,
2013-08-17 23:35:00,57.1,54.5,30.21,SSW,203,0.0,0.0,91,0.00,,,0.00,WeatherCatV1.20B785,2013-08-18 03:35:00,
2013-08-17 23:39:00,56.9,54.3,30.22,SSW,203,0.0,0.0,91,0.00,,,0.00,WeatherCatV1.20B785,2013-08-18 03:39:00,
2013-08-17 23:40:00,56.9,54.3,30.22,SSW,203,0.0,0.0,91,0.00,,,0.00,WeatherCatV1.20B785,2013-08-18 03:40:00,
2013-08-17 23:44:00,56.9,54.3,30.22,SSW,203,0.0,0.0,91,0.00,,,0.00,WeatherCatV1.20B785,2013-08-18 03:44:00,
2013-08-17 23:45:00,56.9,54.3,30.22,SSW,203,0.0,0.0,91,0.00,,,0.00,WeatherCatV1.20B785,2013-08-18 03:45:00,
2013-08-17 23:49:00,56.6,54.0,30.22,SSW,203,0.0,0.0,91,0.00,,,0.00,WeatherCatV1.20B785,2013-08-18 03:49:00,
2013-08-17 23:50:00,56.6,54.0,30.22,SSW,203,0.0,0.0,91,0.00,,,0.00,WeatherCatV1.20B785,2013-08-18 03:50:00,
2013-08-17 23:54:00,56.4,53.8,30.22,SSW,203,0.0,0.0,91,0.00,,,0.00,WeatherCatV1.20B785,2013-08-18 03:54:00,
2013-08-17 23:55:00,56.3,53.7,30.22,SSW,203,0.0,0.0,91,0.00,,,0.00,WeatherCatV1.20B785,2013-08-18 03:55:00,
2013-08-17 23:59:00,56.3,53.7,30.22,SSW,203,0.0,0.0,91,0.00,,,0.00,WeatherCatV1.20B785,2013-08-18 03:59:00,